GFSNW_925_spd_051.txt.gz
Wind_Speed
26 24 25 27 28 30 18 4 3 10 22 4 3 6 4 2 12 3 2 5 5 16 17 10 10 14 2 12 11 13 8 3 5 11 4 13 16 14 14 5 7 7 9 12
23 23 25 26 28 29 16 2 2 1 9 3 5 3 3 1 6 2 4 3 2 16 13 8 6 10 7 10 12 13 10 5 3 4 3 7 11 15 16 16 14 17 10 11
23 22 23 26 29 31 15 1 1 2 2 4 6 7 1 3 2 3 3 7 10 14 11 3 10 9 4 9 9 8 11 4 9 5 4 7 5 13 17 16 10 17 23 33
22 21 23 24 28 30 10 1 2 4 3 6 7 8 4 8 4 3 1 4 4 14 6 8 7 9 11 8 7 6 6 6 12 15 15 15 13 13 16 16 22 16 30 25
20 19 21 23 25 26 5 3 3 3 2 10 10 4 5 4 5 2 2 6 9 4 6 2 9 9 8 6 9 8 4 4 7 12 16 15 18 22 22 21 24 21 26 29
19 18 19 21 23 20 4 4 3 3 2 5 4 4 8 12 7 4 5 4 4 5 7 6 7 5 4 6 9 10 6 3 2 4 8 7 11 16 13 10 7 8 10 17
17 17 18 18 19 18 12 5 3 2 2 4 7 4 7 9 5 5 5 4 1 5 9 8 6 4 2 3 4 6 4 9 4 5 11 5 5 1 5 10 14 14 16 17
16 16 17 17 17 16 15 9 2 2 3 5 8 8 7 7 5 3 5 3 4 9 5 2 2 2 1 6 8 9 9 4 3 3 6 12 2 2 3 4 4 4 7 7
18 17 18 18 16 17 14 8 7 3 3 5 6 5 7 6 6 5 4 3 9 3 2 1 3 3 4 4 3 11 9 9 4 3 4 3 6 5 5 4 3 5 7 8
18 16 17 17 17 17 13 5 9 4 3 3 6 6 7 3 5 2 3 4 4 3 3 3 3 4 3 5 6 5 4 3 8 8 4 8 6 4 5 4 3 2 2 8
17 15 16 16 16 17 15 11 5 4 3 5 2 2 3 4 6 3 5 3 2 3 4 3 4 5 6 5 5 8 10 7 5 6 5 7 3 5 3 4 5 3 4 1
18 16 17 13 14 14 16 4 9 13 3 3 4 6 5 3 5 2 4 1 3 2 2 3 4 4 3 8 3 11 7 9 5 9 5 6 2 7 9 9 7 6 4 4
19 17 16 15 14 13 13 12 12 5 3 4 3 3 3 3 2 3 3 2 4 3 4 2 3 6 4 5 9 8 9 10 6 2 6 12 10 7 6 5 6 2 3 4
19 18 15 15 13 13 13 12 11 7 3 2 1 1 2 2 3 3 2 4 3 2 2 2 3 4 2 3 2 6 1 10 9 11 15 15 4 5 6 1 2 3 2 1
20 17 15 13 12 13 14 16 16 16 3 2 3 3 1 1 1 3 5 7 4 2 2 4 3 3 3 2 2 6 6 7 5 4 5 4 4 3 1 2 4 4 5 7
20 19 16 14 12 10 7 2 3 11 9 2 2 1 2 2 3 5 3 3 2 3 3 3 3 1 3 3 3 5 8 10 11 11 5 3 3 4 4 4 5 5 7 7
21 20 16 11 10 7 5 4 2 11 1 2 2 2 2 1 1 1 1 2 2 2 2 2 2 2 2 3 5 5 1 3 7 9 4 5 4 2 5 8 8 8 11 10
21 13 10 9 6 6 9 12 15 13 5 2 2 3 2 4 1 2 2 2 2 4 1 1 2 2 3 4 8 8 7 7 7 6 6 2 7 8 8 9 10 9 10 10
12 11 13 6 4 3 4 4 5 17 5 2 2 2 2 2 1 1 1 1 2 0 2 2 0 2 5 6 5 5 3 3 4 2 2 4 6 8 9 9 10 9 10 10
2 1 1 2 4 5 3 3 3 2 2 2 2 1 2 1 1 0 1 0 0 1 0 2 2 4 10 10 3 4 3 3 4 3 1 2 3 7 8 8 6 8 10 12
1 1 1 4 1 2 0 1 1 2 2 2 1 2 3 1 2 1 1 0 0 1 2 2 2 3 0 4 6 5 5 4 4 4 4 6 6 9 8 7 8 10 11 11
7 10 7 3 0 1 1 1 0 2 2 1 2 1 1 1 1 1 0 0 1 1 3 2 2 1 4 6 7 8 6 5 2 3 6 4 6 10 10 10 11 12 16 18
2 1 1 0 1 2 3 4 2 1 2 3 3 1 1 1 1 0 0 1 1 1 1 2 3 3 4 5 5 5 4 2 1 2 2 3 6 12 12 11 15 18 19 18
1 2 2 2 3 2 1 1 1 1 1 3 2 2 1 1 1 1 1 1 1 1 2 3 4 7 8 6 6 5 4 4 3 2 3 6 7 8 13 14 18 20 18 19
0 1 3 4 2 1 1 1 1 2 1 1 1 2 1 1 0 0 1 2 3 3 1 3 6 9 7 7 7 6 4 1 2 2 4 6 10 10 12 16 16 19 21 21
1 2 2 1 1 2 2 1 1 0 1 1 1 1 2 2 1 2 5 2 1 2 3 4 7 8 8 8 7 6 5 2 1 3 6 9 10 11 13 17 17 18 20 23
2 1 1 1 2 1 2 0 2 3 1 1 1 3 2 1 2 3 2 1 2 5 5 5 6 7 8 8 7 5 4 2 1 4 6 9 14 17 17 12 15 18 19 21

GFSNW_925_spd_054.txt.gz
Wind_Speed
25 25 24 27 28 30 18 2 3 13 15 2 2 2 3 2 3 4 4 2 6 12 14 9 8 11 3 16 11 12 3 3 4 8 8 15 12 6 7 3 4 4 1 6
24 23 24 26 27 29 15 2 2 3 4 1 2 2 2 4 2 5 3 2 1 13 9 6 5 9 2 13 12 12 7 3 3 2 6 10 8 12 11 8 4 7 2 6
23 22 23 26 27 28 9 1 1 2 2 3 4 3 2 2 5 5 4 3 9 15 7 12 10 8 3 4 5 8 8 3 5 1 3 4 3 9 14 13 4 6 16 22
22 22 22 24 27 26 9 1 2 2 3 5 8 1 5 2 2 1 4 3 8 9 3 12 7 9 9 4 4 3 4 3 6 8 8 9 7 10 11 13 16 13 21 18
21 21 21 22 25 22 3 2 3 3 3 8 8 1 4 2 6 4 1 5 10 5 4 1 12 13 8 6 5 5 2 2 5 6 10 12 12 14 16 17 17 16 20 26
21 19 20 20 22 20 4 3 2 2 7 2 2 2 3 4 4 6 7 7 6 12 9 11 10 3 6 7 8 5 4 2 2 3 7 5 6 13 16 14 14 17 17 21
22 21 20 20 18 19 12 5 3 2 3 1 2 5 2 5 1 4 3 4 5 4 7 7 7 9 7 3 4 7 6 4 2 4 5 3 3 6 3 8 10 12 11 18
20 20 21 19 17 18 16 6 3 2 3 7 3 5 1 3 5 5 6 8 7 7 5 2 2 2 1 3 3 3 2 3 2 2 3 7 3 4 5 4 3 12 15 15
20 19 19 18 16 18 15 3 6 2 3 2 9 4 3 0 3 3 3 4 6 4 2 0 2 3 4 4 3 4 4 4 1 3 2 3 1 5 4 5 2 6 2 5
20 19 18 17 16 15 17 3 8 2 2 5 7 2 2 3 2 2 5 3 1 2 2 1 2 2 2 4 6 5 4 3 6 4 3 7 5 6 7 1 1 2 4 3
19 20 18 17 14 13 15 11 1 1 2 7 5 3 3 1 1 1 2 2 1 1 2 2 3 3 4 3 6 7 8 7 4 5 3 8 3 4 2 2 3 3 3 4
18 19 18 17 15 12 12 4 8 7 3 5 7 10 8 3 3 2 3 1 3 2 2 1 3 3 2 5 2 5 5 6 5 6 5 8 4 3 6 3 2 3 1 3
20 20 19 16 14 11 7 9 11 4 3 4 2 2 5 0 1 1 3 0 3 3 1 2 3 5 3 3 5 6 5 8 3 1 8 12 13 7 4 4 3 4 3 1
21 21 19 16 13 11 8 10 9 8 3 2 0 1 2 1 1 3 1 3 4 3 2 2 3 3 2 2 2 2 2 8 6 5 11 15 1 4 4 5 5 4 3 1
22 21 19 15 12 11 11 14 16 15 2 2 3 7 3 2 1 3 4 5 4 2 3 3 3 3 2 3 3 3 4 5 4 4 0 2 2 3 4 6 5 4 4 5
23 22 20 15 12 7 5 2 3 14 10 2 2 1 2 1 1 3 2 2 2 2 3 3 3 4 1 3 3 4 4 6 5 2 2 4 5 5 4 6 5 6 6 6
25 22 19 14 10 8 5 2 2 9 9 2 2 2 2 2 1 1 0 3 2 2 2 3 2 2 1 2 3 2 1 4 3 4 2 3 5 3 7 7 7 10 9 9
23 16 11 10 7 5 8 11 14 13 4 2 2 2 2 3 1 2 2 2 2 4 2 1 2 2 2 3 4 6 3 5 4 5 0 4 7 7 7 6 7 8 7 7
11 8 14 11 3 3 3 3 6 16 3 2 2 1 2 3 2 1 2 1 2 0 3 2 1 2 4 4 3 5 5 4 4 4 5 4 5 6 6 7 7 8 7 8
2 3 2 2 5 5 6 4 3 3 3 2 2 2 2 1 1 1 1 0 1 1 1 2 2 3 6 5 5 5 5 3 1 1 1 1 2 6 6 6 6 7 8 10
2 1 1 5 4 3 2 1 2 2 2 3 2 2 2 1 1 1 1 1 1 1 0 1 1 2 2 7 7 6 6 5 5 3 0 2 5 7 7 7 7 8 11 11
5 7 6 3 1 0 2 1 1 2 2 2 2 1 1 2 1 1 0 1 1 1 2 1 2 2 6 7 7 8 7 7 4 4 3 2 2 6 7 7 9 11 16 20
4 2 1 1 1 2 3 5 1 1 1 2 2 1 1 1 0 0 1 1 1 1 1 2 1 5 8 7 5 7 7 7 4 3 2 3 6 14 14 9 14 18 19 19
1 0 2 3 3 2 1 1 2 1 1 1 1 1 0 1 1 1 1 0 1 1 1 2 2 8 9 8 8 7 7 6 5 5 5 4 6 7 14 16 18 19 18 20
1 1 2 2 1 3 2 2 1 1 1 1 1 1 1 1 0 0 1 1 2 2 1 1 4 8 9 9 9 9 9 8 6 4 2 4 7 8 10 16 19 19 20 20
1 1 2 2 1 1 1 1 1 1 2 0 1 0 1 2 1 1 3 1 2 0 2 2 4 6 7 7 8 6 5 6 5 5 2 4 6 7 11 18 19 20 22 22
2 2 1 1 1 1 2 1 2 2 1 1 1 2 4 1 1 2 1 1 1 1 2 2 5 6 7 7 7 6 7 5 6 5 4 4 10 15 14 7 14 21 23 24

GFSNW_925_spd_057.txt.gz
Wind_Speed
25 24 25 27 29 32 21 3 2 9 4 2 0 1 5 8 7 7 6 3 6 6 5 6 4 9 1 9 5 6 1 4 3 5 4 6 6 5 6 4 5 3 3 6
24 23 24 26 28 30 12 3 2 4 6 3 2 1 6 2 3 6 2 4 3 9 5 5 2 7 4 15 7 8 4 1 3 2 1 2 5 8 7 5 1 5 3 6
24 21 23 25 27 29 7 2 2 3 2 2 3 3 2 4 7 5 5 2 14 6 4 6 5 7 6 4 3 11 4 3 4 5 3 3 5 11 16 11 4 3 7 16
22 21 22 25 28 26 7 2 2 3 3 3 4 2 3 3 3 4 5 12 11 6 4 11 7 7 5 5 5 4 4 2 2 4 6 5 6 8 12 14 17 9 3 12
20 21 22 23 26 23 4 3 3 2 4 5 2 3 4 3 4 7 4 9 7 12 3 4 6 7 3 3 1 3 2 1 2 4 8 8 10 12 12 14 15 20 17 23
19 19 19 21 22 23 4 4 4 2 5 3 2 3 4 3 4 6 8 11 10 13 10 12 6 5 5 8 6 3 4 2 1 4 3 5 5 14 14 9 11 17 16 21
18 18 17 18 18 19 13 4 3 2 3 2 1 4 6 2 2 2 5 7 5 2 3 5 7 9 10 6 6 6 5 2 1 4 3 2 6 4 6 9 8 10 12 15
17 16 16 15 16 16 18 8 4 2 3 4 4 5 3 3 4 6 6 6 3 5 5 3 3 4 4 2 2 5 4 3 1 1 2 6 0 3 5 4 4 6 12 12
15 16 15 14 15 15 17 5 5 3 3 3 4 3 2 1 3 2 3 5 5 5 2 2 3 3 3 3 2 2 3 4 2 1 2 4 1 3 6 5 3 6 4 6
15 15 15 14 13 12 14 5 5 3 3 3 4 2 2 2 2 2 3 2 3 3 1 1 1 2 3 4 6 5 3 3 5 4 2 7 7 4 4 1 3 3 4 5
14 14 15 14 12 11 11 14 3 1 2 6 3 4 2 3 1 3 3 3 1 2 1 2 2 2 3 3 6 6 7 5 4 5 4 7 4 2 1 4 4 4 6 5
14 14 15 15 13 10 8 7 5 8 3 4 8 19 18 6 1 3 2 1 2 3 2 0 2 2 2 3 3 3 4 6 5 7 6 6 5 5 5 5 5 3 3 4
16 14 15 14 12 10 7 12 11 8 2 4 3 4 1 5 4 2 3 1 3 2 2 2 2 4 1 2 4 6 4 6 3 2 6 11 8 6 2 3 1 1 1 1
17 16 15 14 12 10 8 10 10 7 2 2 2 1 1 1 3 4 2 5 4 4 2 2 2 2 1 3 3 2 5 6 6 5 8 8 1 1 1 1 2 2 2 1
19 17 14 13 12 10 10 14 19 17 3 2 3 11 2 1 1 3 3 5 4 2 3 3 4 2 2 3 1 4 3 6 4 5 6 3 2 1 0 3 1 1 2 2
19 18 17 14 11 7 3 2 5 15 14 2 2 1 3 3 3 3 3 3 3 3 3 2 3 4 3 2 3 5 5 4 7 5 4 3 4 3 2 4 3 2 4 4
21 20 18 15 10 10 5 1 2 10 16 2 2 3 0 2 1 1 1 3 2 2 2 4 2 2 2 2 3 4 4 3 2 1 0 2 4 4 4 6 5 6 6 7
21 20 5 10 10 7 8 14 15 9 4 2 2 2 2 5 2 1 2 2 2 3 2 2 3 2 2 3 5 6 4 3 6 6 5 1 6 6 5 4 5 6 6 6
10 7 13 12 3 4 3 3 7 16 2 2 1 1 2 2 2 1 2 2 2 2 3 2 1 1 3 2 4 6 6 4 5 3 2 3 3 5 6 5 6 6 4 6
4 2 3 2 3 4 4 5 3 2 2 3 2 2 2 3 2 1 0 1 1 1 0 2 2 2 3 8 6 5 7 7 7 4 4 2 2 6 7 7 5 5 6 7
1 2 1 4 4 6 2 3 3 3 2 3 2 3 2 1 2 1 1 1 1 1 1 1 1 1 4 9 8 7 7 7 7 7 6 4 5 5 6 6 6 6 9 8
5 11 9 3 1 0 2 2 0 2 3 2 2 1 1 2 1 1 0 1 0 1 0 0 1 1 7 8 10 11 9 8 7 5 5 6 4 5 7 7 8 10 14 16
2 2 2 2 1 2 3 4 2 2 2 1 1 1 1 1 0 0 1 1 1 1 0 1 2 4 7 9 9 10 9 8 6 6 7 4 5 10 10 8 13 17 17 17
1 2 3 3 3 3 2 2 2 0 2 1 0 1 0 0 0 0 1 1 0 1 1 2 2 7 9 8 8 8 10 9 7 7 6 4 5 5 11 13 15 17 16 17
1 1 3 3 1 2 1 1 1 1 0 1 1 1 0 1 0 1 0 1 0 0 1 1 3 7 7 8 8 8 8 7 6 5 5 3 5 6 8 14 16 16 18 20
0 2 2 1 0 1 0 0 1 1 1 1 1 1 1 2 1 1 3 1 2 2 1 2 3 5 6 6 7 6 7 6 6 7 5 1 4 5 8 13 15 17 20 20
2 2 1 1 1 0 1 1 1 2 1 1 0 2 3 2 1 2 1 3 2 2 2 2 3 5 6 7 7 7 9 8 8 9 8 2 4 11 12 6 7 16 16 20

GFSNW_925_spd_063.txt.gz
Wind_Speed
25 26 28 29 31 33 16 4 2 5 9 3 2 2 6 6 2 2 2 4 7 4 5 4 3 4 3 3 5 4 2 5 3 2 1 4 4 5 5 4 4 1 3 6
24 26 28 28 30 31 9 3 3 2 3 2 3 4 4 2 3 4 5 3 4 5 3 5 4 4 3 5 4 6 4 2 3 2 2 1 3 4 4 4 3 4 4 5
23 25 27 27 29 29 6 2 4 3 3 1 4 5 4 6 5 5 2 3 5 5 5 5 4 3 4 6 4 5 4 3 4 5 3 4 4 4 6 5 2 3 6 6
21 23 25 26 29 28 5 3 2 1 4 4 6 3 3 4 2 3 7 5 5 5 3 3 4 3 3 5 5 3 3 2 2 1 2 2 4 4 7 8 10 6 3 9
19 21 23 24 26 26 4 3 3 2 3 8 6 3 4 7 5 6 5 5 6 5 4 0 5 6 2 3 3 3 2 1 3 3 4 3 4 7 8 11 10 13 16 21
16 19 20 21 22 22 5 5 3 2 6 5 3 5 7 10 6 10 8 6 5 10 5 2 5 6 3 5 5 3 3 3 2 3 4 4 5 7 11 6 6 11 10 19
14 16 17 18 18 17 12 5 3 2 4 3 3 6 8 11 7 3 4 6 3 2 2 2 7 9 8 8 6 2 4 3 2 1 4 1 5 2 5 11 9 12 13 16
13 13 15 16 16 15 17 8 3 2 3 6 5 9 3 8 5 4 3 5 2 4 4 4 4 3 3 5 6 5 3 3 2 2 2 6 4 2 5 4 3 5 11 12
12 13 12 13 14 14 15 7 7 2 3 2 5 4 3 2 3 4 3 2 4 5 3 3 2 3 3 3 2 4 5 6 3 1 2 3 3 2 1 2 3 1 4 6
12 13 12 11 12 13 12 9 8 4 2 2 4 2 3 2 2 1 3 3 5 3 2 2 2 1 4 4 5 3 3 1 3 2 2 6 6 7 3 1 2 3 3 7
13 13 14 12 11 12 10 9 8 2 3 6 3 3 3 4 2 1 2 3 4 3 3 1 1 1 1 2 4 5 6 5 3 3 3 6 3 2 3 1 4 5 6 6
15 14 15 15 12 11 9 5 3 7 3 4 9 19 24 12 3 2 0 3 2 3 3 1 1 1 1 2 2 1 3 5 4 7 6 5 4 5 6 2 5 4 4 4
15 16 15 17 14 13 11 12 9 3 3 4 4 6 5 9 18 14 1 1 1 2 3 3 1 2 2 2 3 2 4 4 2 1 4 9 10 8 8 5 4 3 3 2
17 16 17 17 15 14 12 12 9 6 3 3 4 2 3 3 6 7 5 1 3 3 1 1 1 2 3 2 2 3 4 6 4 5 8 8 7 6 4 3 3 2 3 2
17 17 18 17 16 13 12 13 15 13 1 3 4 14 4 6 5 5 5 5 3 2 2 2 3 2 1 1 1 4 5 6 4 5 6 3 6 4 1 2 2 3 2 1
18 19 20 19 18 9 5 2 13 22 14 3 2 4 2 3 3 4 3 3 2 2 2 2 3 3 3 2 3 4 2 2 5 5 2 5 8 5 1 1 2 1 1 1
19 21 23 23 17 15 6 2 4 16 19 3 2 3 1 5 3 2 2 2 2 2 2 3 2 3 4 2 3 1 4 6 4 5 6 3 2 4 2 1 2 2 3 2
20 21 22 5 12 12 11 17 11 18 6 3 2 2 2 4 2 2 2 2 1 2 2 2 2 3 2 4 2 7 9 11 4 9 7 5 6 2 1 1 2 1 2 2
20 11 3 4 4 4 2 4 5 16 2 2 2 2 3 2 1 2 2 2 2 1 2 3 1 3 4 1 5 7 8 6 11 12 10 8 6 6 3 3 3 4 3 3
6 4 3 2 2 2 7 4 3 3 3 3 2 1 1 3 1 2 1 1 1 2 2 1 3 1 2 3 5 6 7 7 7 8 7 6 5 5 4 6 5 5 5 5
3 2 1 4 7 5 2 3 4 3 3 3 3 4 3 2 3 1 2 2 1 2 1 2 2 2 1 4 6 6 7 8 8 8 9 9 10 9 7 5 6 5 8 6
8 10 7 3 2 3 3 3 2 3 3 2 2 2 2 2 1 1 1 1 1 3 1 2 2 1 2 5 6 7 8 9 10 9 8 8 8 7 5 3 5 7 11 13
4 4 2 2 2 3 3 3 2 2 1 0 1 0 0 1 1 1 1 2 2 1 2 1 1 1 3 5 5 7 7 8 9 10 12 12 5 5 3 4 7 12 11 12
2 2 3 3 3 2 1 2 2 0 1 1 1 1 1 0 0 1 2 1 0 1 2 2 1 2 5 5 5 6 8 8 8 9 10 8 7 5 4 3 8 10 10 11
2 2 3 2 1 1 0 1 1 1 1 0 1 2 1 0 1 1 1 1 2 3 3 2 1 1 3 5 7 8 8 8 8 8 8 8 9 5 3 2 4 7 11 12
2 3 2 3 1 1 1 0 1 1 1 0 1 2 0 2 1 1 4 1 4 2 2 1 1 1 3 4 6 6 8 8 8 10 11 11 11 7 4 2 2 5 8 11
3 2 2 2 2 1 1 1 1 2 1 1 1 1 3 1 1 2 2 2 1 3 1 1 2 1 3 5 5 7 10 10 11 12 12 12 13 7 4 2 2 4 7 9

GFSNW_925_spd_066.txt.gz
Wind_Speed
23 27 28 29 30 32 18 4 3 6 11 3 2 2 8 5 5 2 3 3 6 4 4 5 4 3 2 1 3 4 1 4 4 2 2 3 3 5 4 3 4 2 3 5
21 25 27 28 29 28 10 4 3 4 4 3 4 5 3 2 4 5 6 4 5 3 4 5 4 3 4 1 4 5 4 3 4 2 1 2 3 3 4 4 3 4 4 4
19 24 25 27 28 27 7 2 4 4 3 1 2 4 5 5 4 3 2 4 6 6 6 6 3 3 4 2 3 9 5 3 4 5 3 3 3 4 6 5 3 3 5 4
19 21 24 26 28 24 5 3 2 2 4 4 7 2 2 3 5 3 7 6 6 3 3 3 3 3 3 6 4 4 3 3 2 1 2 2 4 5 8 7 5 6 3 6
18 18 22 24 26 22 6 2 3 3 4 10 7 6 8 10 5 5 5 5 5 5 4 2 5 6 3 2 4 3 3 2 2 2 3 4 4 7 9 9 5 9 9 18
16 17 19 20 22 22 6 6 3 2 5 7 4 6 7 8 3 8 7 3 5 10 6 1 5 6 4 5 5 2 3 4 2 3 3 3 4 7 9 5 5 7 7 10
15 15 15 17 18 17 11 5 4 2 4 5 5 9 7 10 5 5 5 7 4 1 3 2 5 10 9 9 7 2 4 3 2 1 3 1 4 3 5 10 7 10 9 12
13 14 14 13 15 14 15 11 4 2 3 6 6 13 7 6 6 5 3 5 2 3 3 4 3 3 3 4 6 6 4 3 2 2 2 6 1 1 4 3 2 6 7 9
15 13 14 12 12 13 14 6 9 3 3 1 5 6 3 3 3 4 4 2 3 3 3 3 2 2 2 2 2 5 6 5 3 1 1 2 3 0 1 2 1 1 4 4
14 13 12 11 11 10 12 7 6 4 2 3 4 3 3 2 1 0 3 5 5 3 2 2 2 1 3 3 5 3 2 1 3 2 2 6 5 5 2 2 2 5 3 8
14 14 13 12 11 10 9 7 8 4 2 5 4 4 3 4 2 1 3 3 3 3 3 2 1 2 2 2 3 4 5 5 3 3 1 5 3 1 3 3 2 2 5 4
16 16 13 13 13 10 8 3 5 6 3 4 8 19 24 15 7 2 1 2 1 3 3 0 1 1 1 2 1 1 2 5 4 7 5 4 3 4 4 1 3 4 3 3
16 15 15 14 14 14 11 13 9 4 2 5 4 8 10 13 23 17 2 1 0 1 3 3 2 1 3 2 2 2 3 3 2 1 2 6 7 7 7 4 6 2 3 3
17 16 15 15 15 13 12 12 11 6 2 3 5 3 6 4 7 15 14 3 1 2 1 1 1 2 4 2 2 3 4 5 4 4 8 7 5 3 5 3 1 2 3 2
18 16 16 17 16 14 13 12 15 15 4 3 4 14 6 8 9 10 9 5 2 1 1 1 2 0 2 0 0 3 3 6 4 4 4 1 7 4 4 4 3 2 2 3
18 18 18 19 17 14 3 2 13 22 16 2 3 5 2 5 7 7 4 3 2 1 2 2 2 3 3 2 3 4 1 2 2 4 4 5 8 7 3 4 3 1 2 2
19 19 20 22 22 16 4 3 5 19 17 2 3 2 2 5 3 2 2 2 1 1 2 2 3 3 4 2 4 2 3 5 4 4 7 2 4 4 7 5 3 2 1 2
19 20 18 17 4 9 11 17 6 15 5 4 2 2 2 5 2 2 2 2 1 2 2 1 1 2 3 4 2 2 4 7 4 6 5 6 9 6 6 2 2 2 3 2
21 18 8 3 1 3 2 5 7 18 6 2 2 1 2 2 2 2 1 2 2 0 2 3 2 3 4 1 1 4 4 4 9 10 9 9 5 6 5 3 4 4 4 3
12 1 1 2 3 5 5 8 2 3 3 3 3 2 2 2 1 1 2 1 2 2 2 2 3 3 3 2 3 4 5 6 5 7 9 9 9 7 7 8 6 6 5 4
5 2 1 7 6 4 2 3 4 4 3 3 3 4 2 2 2 2 2 2 2 2 2 2 3 2 1 2 4 4 5 6 6 6 8 9 10 9 10 10 7 6 7 6
8 10 8 5 3 3 3 3 3 4 3 3 3 3 3 2 1 2 2 2 2 4 2 2 2 1 0 3 4 6 6 7 7 8 9 9 9 10 8 8 5 6 8 10
5 3 2 2 2 3 3 2 2 1 1 1 1 1 1 2 1 1 1 3 3 2 2 2 1 2 1 3 4 5 5 7 7 8 11 11 10 9 6 3 2 5 8 10
2 2 4 3 3 3 1 1 1 1 1 1 1 1 1 1 1 1 2 1 1 1 1 4 3 3 2 3 3 4 7 7 7 8 9 9 10 8 8 5 1 5 7 9
2 2 4 2 2 1 0 0 0 1 1 1 1 1 1 0 0 1 1 2 3 4 3 2 3 3 3 4 5 6 7 7 6 8 7 9 12 8 6 6 3 1 5 7
2 3 3 2 2 1 1 1 1 1 1 1 1 1 1 2 1 2 4 2 4 2 2 2 3 3 3 3 4 4 7 8 9 10 11 10 9 8 6 6 5 3 1 5
2 3 2 2 3 2 1 2 0 1 1 1 1 2 4 1 2 2 3 3 1 2 1 1 3 4 3 2 3 4 7 8 9 10 11 11 13 11 11 6 10 5 3 3

GFSNW_925_spd_069.txt.gz
Wind_Speed
21 26 30 31 31 33 16 5 3 12 17 3 1 2 7 4 4 3 3 2 6 4 2 5 4 3 1 1 2 4 0 5 4 2 1 2 2 3 3 3 4 2 1 3
22 25 30 31 31 30 11 3 3 7 7 4 4 5 3 2 6 5 5 4 4 2 2 4 3 2 4 5 4 4 3 2 4 2 3 3 2 3 3 4 3 3 3 3
22 22 28 30 32 30 8 2 4 4 3 1 4 5 5 5 1 3 2 3 3 3 6 6 3 3 5 5 3 9 6 3 3 4 3 3 4 4 5 4 2 4 4 4
19 21 25 29 32 25 6 3 2 1 4 3 8 3 3 5 6 5 7 5 6 2 3 3 3 3 1 5 7 4 4 4 3 3 3 2 4 5 7 6 4 4 1 5
18 19 21 26 30 26 7 2 3 2 3 9 8 8 7 8 4 5 5 5 6 6 4 1 5 5 2 2 5 3 4 2 2 2 3 3 3 5 8 4 2 6 3 12
15 17 17 20 23 25 6 6 4 2 5 6 5 5 6 5 4 3 5 2 4 10 5 2 2 2 4 5 5 2 3 4 2 1 2 1 3 6 7 3 3 5 6 8
15 13 15 14 17 19 13 4 3 2 3 5 5 7 8 8 7 3 3 6 4 1 3 1 1 9 9 9 7 2 4 3 2 1 2 1 4 2 6 10 5 10 4 7
14 13 12 13 13 14 17 7 4 2 4 7 7 13 7 5 5 4 3 5 2 3 3 3 3 4 4 5 6 7 2 4 2 2 1 4 1 2 5 5 1 8 8 7
14 13 12 12 11 11 13 4 9 2 3 1 5 6 7 2 4 4 3 2 2 3 3 2 2 1 2 2 2 4 6 5 3 1 1 2 2 2 1 2 0 2 4 4
14 13 12 12 11 9 9 4 9 2 3 3 2 2 4 4 1 2 3 5 6 3 2 2 1 1 2 3 4 3 2 1 2 1 1 5 5 4 3 3 2 1 1 4
14 14 14 10 12 10 6 7 5 1 3 6 5 4 4 4 2 2 3 2 3 3 3 2 1 2 2 2 2 4 5 5 3 3 0 3 4 0 2 2 2 2 3 2
15 15 14 12 11 11 7 6 3 4 3 5 15 24 24 18 12 4 2 2 1 2 3 0 1 1 1 3 1 1 2 5 4 6 5 3 2 3 1 2 3 4 2 2
15 16 15 14 12 13 8 10 10 5 2 5 2 7 10 15 28 20 2 0 0 1 3 3 2 1 3 2 2 2 3 3 2 1 2 6 5 5 4 3 5 4 3 2
15 16 16 14 14 14 12 8 9 7 2 3 5 8 11 9 10 20 23 3 1 1 1 1 2 2 3 2 2 3 3 5 4 4 7 4 3 3 3 2 2 2 1 2
16 17 16 16 16 16 14 14 16 16 4 3 5 16 11 11 11 15 17 10 2 1 1 2 2 1 2 0 1 3 4 5 4 4 2 2 6 3 6 6 3 4 3 3
17 17 17 17 17 14 6 3 9 20 17 1 3 6 3 6 13 11 7 5 3 2 2 2 2 3 3 2 2 4 3 1 2 3 3 5 7 1 5 5 4 4 3 2
18 18 18 20 19 21 5 3 3 12 16 2 3 3 3 8 5 3 2 4 2 1 1 2 2 2 4 2 3 3 3 0 3 2 5 1 3 3 7 5 5 4 2 2
18 19 20 16 12 3 10 11 9 15 3 2 3 3 2 5 2 2 2 2 2 2 2 1 2 1 3 4 3 3 1 5 2 3 3 5 7 7 6 3 2 4 4 3
22 21 11 5 3 3 2 6 14 12 4 3 2 2 2 1 2 2 2 1 3 1 3 2 3 3 5 1 3 1 2 2 5 6 6 6 4 6 5 5 5 4 5 3
15 5 1 2 2 9 7 4 4 3 3 3 3 2 2 3 2 2 2 1 1 2 3 2 3 3 3 3 2 1 2 3 5 5 2 4 6 6 7 7 7 7 6 4
6 4 1 6 2 3 2 3 4 4 4 4 3 4 2 2 2 2 1 2 1 2 2 2 2 2 2 3 2 2 3 4 5 6 7 6 7 9 9 9 8 7 8 6
9 11 9 4 3 2 3 3 3 4 3 3 3 3 4 1 1 2 1 2 2 3 1 2 2 2 3 2 3 4 4 4 6 7 7 8 8 10 8 7 8 9 8 7
5 3 3 2 2 3 4 3 3 2 1 1 0 1 2 1 1 2 2 3 3 2 2 3 2 3 3 3 2 3 4 6 6 6 8 9 10 10 8 6 8 4 2 5
2 2 5 3 3 3 2 1 2 1 2 1 1 1 1 1 2 2 2 2 1 2 2 4 3 3 3 2 2 2 4 6 6 7 8 8 9 10 10 9 7 5 1 2
3 2 4 2 3 3 1 2 2 1 2 1 1 1 1 0 1 1 0 2 3 4 3 1 3 4 4 2 2 4 5 5 5 7 6 8 10 8 8 11 10 7 3 1
2 3 3 3 2 2 2 2 2 2 1 0 2 1 1 2 1 2 4 2 3 2 1 2 4 4 3 2 3 4 5 6 7 8 9 10 10 9 7 8 10 8 6 3
2 3 2 2 3 3 2 2 2 5 2 0 0 2 6 1 1 2 3 3 2 1 1 1 3 4 4 3 3 4 5 5 6 8 9 10 12 10 10 6 11 8 6 5

GFSNW_925_spd_072.txt.gz
Wind_Speed
23 27 30 33 33 36 17 6 1 12 12 3 2 3 8 5 5 1 3 4 6 3 3 6 5 4 2 6 3 5 3 5 5 3 3 1 1 2 1 2 3 3 2 3
24 25 29 32 32 31 10 5 3 8 6 4 5 6 5 3 8 6 5 5 6 3 4 4 5 4 2 6 3 2 4 4 6 4 2 1 3 3 3 5 2 3 2 4
23 24 27 31 33 29 8 3 3 3 3 1 4 5 4 6 4 4 3 4 2 3 7 7 4 5 5 5 6 9 3 3 2 2 4 5 5 8 9 3 2 4 2 3
20 22 25 29 33 24 7 4 3 2 4 4 8 3 6 4 6 6 8 5 8 4 3 3 4 4 3 4 5 3 2 4 6 7 5 2 2 7 10 4 3 3 4 4
18 18 21 24 30 22 8 4 3 3 3 7 9 9 7 8 6 7 5 5 8 6 4 4 3 4 1 1 3 2 1 4 5 3 3 3 3 5 9 8 6 8 5 12
17 19 19 20 24 23 6 6 5 3 4 7 5 5 6 8 5 3 5 3 5 11 6 4 3 3 5 3 2 2 2 4 1 2 1 1 2 6 9 7 5 9 7 4
17 17 16 17 17 20 10 4 3 3 3 4 5 7 8 11 8 3 5 5 2 3 4 1 6 11 11 10 8 2 4 3 1 2 1 0 3 3 4 9 6 10 5 6
14 15 15 14 13 13 15 6 5 3 5 6 4 10 7 8 4 3 3 5 3 3 1 0 2 2 2 6 8 8 3 3 3 1 1 2 1 2 4 3 2 6 10 6
13 14 14 13 12 11 12 5 7 2 4 0 6 6 4 3 5 2 2 3 4 2 2 0 0 1 2 2 2 6 7 6 2 1 1 1 3 3 1 1 4 4 6 3
12 12 13 13 11 10 10 5 8 2 3 4 4 2 3 5 2 3 3 6 4 2 0 1 0 2 1 3 3 2 2 2 1 1 1 2 3 1 2 3 4 5 3 6
11 12 12 12 11 10 9 7 6 1 3 9 8 6 7 4 2 3 6 3 1 1 1 1 1 1 2 1 1 2 4 4 2 2 2 2 4 3 2 4 3 2 2 3
12 12 13 12 11 9 9 5 6 6 6 6 12 21 20 15 13 4 4 3 2 2 1 1 1 1 2 1 1 2 2 2 0 4 1 2 1 2 1 2 7 5 4 0
13 13 14 13 10 9 9 9 7 5 3 8 5 8 12 15 24 19 3 1 2 1 1 1 1 1 1 2 1 1 3 3 2 2 3 5 3 2 3 1 2 3 4 2
13 14 15 14 14 12 11 10 7 5 4 4 5 4 7 6 9 23 29 5 4 2 1 1 1 1 3 1 1 3 1 6 3 4 7 6 5 1 5 5 3 2 2 2
15 16 17 16 15 15 14 14 17 15 5 3 7 20 10 10 12 15 19 17 5 2 2 2 2 1 2 1 1 4 5 5 4 3 2 3 1 5 5 3 3 3 3 2
16 19 19 17 16 16 10 3 3 15 17 1 4 5 5 7 11 12 14 11 5 2 2 2 2 1 2 3 3 3 7 5 3 1 2 5 8 3 6 5 5 4 3 2
17 19 20 20 18 16 5 3 2 6 14 2 4 4 4 8 7 4 3 9 3 2 1 1 1 2 3 3 6 3 6 5 3 1 3 3 1 2 10 7 6 4 3 3
18 22 24 22 15 9 3 11 3 13 4 1 3 4 3 7 4 3 3 2 2 2 1 1 2 2 3 4 6 3 4 2 3 3 1 4 7 7 5 6 5 5 4 3
21 23 14 4 2 2 3 5 13 12 3 2 3 3 1 2 1 2 2 2 3 1 2 3 3 4 6 4 6 6 3 1 1 4 5 6 4 6 7 7 6 6 7 6
16 4 1 1 1 4 7 4 1 2 3 3 3 3 2 2 4 2 3 2 2 2 3 2 3 3 2 4 4 3 1 1 3 3 2 3 8 8 8 10 9 9 10 9
6 4 1 5 4 2 2 3 3 4 3 4 3 4 2 2 2 2 2 2 1 2 2 2 2 2 3 4 4 2 2 2 3 4 6 7 9 10 10 11 10 10 12 10
5 9 9 4 2 3 3 3 3 5 4 3 3 3 4 1 2 2 2 2 2 3 2 2 3 2 4 3 2 2 2 3 4 5 6 7 7 9 9 8 8 11 12 10
2 3 2 2 3 4 4 4 3 3 2 1 1 1 3 2 1 2 2 3 3 2 2 3 0 5 4 3 2 2 4 4 5 5 6 7 8 8 8 7 8 8 5 3
1 2 4 3 3 3 2 3 3 2 2 3 1 1 1 2 2 2 3 2 2 3 3 3 3 6 5 3 3 2 3 4 5 6 7 7 8 8 8 9 9 8 5 4
2 2 4 3 3 3 3 3 3 2 3 3 0 1 1 1 2 2 1 3 3 3 2 1 4 7 6 4 3 2 3 4 4 6 6 8 8 8 8 11 11 9 7 5
2 3 3 3 3 2 3 2 3 3 4 2 1 1 1 1 1 2 3 2 3 1 1 2 5 6 5 4 2 2 3 4 5 6 7 8 9 9 8 9 11 12 10 8
2 3 3 4 4 4 3 2 3 5 3 2 1 1 2 1 1 2 3 2 0 1 2 3 4 5 6 4 3 3 4 5 6 7 8 9 9 8 10 8 12 10 10 9

GFSNW_925_spd_075.txt.gz
Wind_Speed
26 27 31 34 37 39 18 6 3 11 9 3 2 3 5 5 7 3 4 5 6 8 8 10 7 7 6 8 5 5 4 5 5 7 8 10 7 9 9 4 5 2 4 4
24 26 30 33 35 34 14 6 4 7 11 3 5 7 5 2 7 9 5 6 8 5 6 3 6 6 5 5 5 5 1 5 5 4 3 2 4 7 4 2 2 2 3 5
24 25 28 32 35 31 9 4 4 4 3 0 3 5 6 8 3 3 4 5 3 4 7 6 4 5 6 7 6 6 3 3 3 4 6 7 4 9 8 2 2 3 2 10
22 24 25 30 34 23 7 4 3 3 4 5 11 6 7 9 7 7 7 3 7 5 3 5 4 4 4 5 2 3 3 5 8 9 8 5 3 6 9 3 2 2 6 8
20 21 22 25 30 22 10 4 3 4 5 9 8 10 8 8 12 8 5 6 8 9 6 6 2 1 2 3 3 3 2 3 3 3 3 1 1 3 8 9 9 4 2 4
19 19 20 20 23 22 7 9 4 3 8 7 5 3 5 7 15 2 5 6 5 8 9 5 4 3 4 4 3 2 2 4 3 2 2 2 4 8 10 7 5 8 7 4
17 19 18 19 18 18 10 9 5 3 4 6 7 6 8 12 12 7 6 6 2 3 5 5 3 7 7 6 5 2 1 1 2 1 1 2 4 3 4 7 5 7 2 2
15 17 18 18 16 15 11 8 5 3 5 8 8 13 7 10 8 3 5 6 5 5 4 2 2 3 3 5 6 4 2 1 1 2 4 4 5 3 4 6 2 8 7 3
12 15 15 16 15 16 10 6 6 4 5 1 8 10 8 3 6 3 4 3 4 3 2 2 2 1 2 2 2 2 1 1 2 2 2 1 5 5 1 2 3 7 7 4
11 13 14 15 15 13 10 7 4 5 5 4 7 3 4 5 4 4 2 6 4 2 3 2 2 2 2 1 2 2 2 2 3 2 1 1 5 2 1 3 4 8 3 3
9 11 12 13 14 13 9 10 6 4 3 12 10 8 9 8 4 3 6 4 1 2 2 2 1 2 2 2 1 1 2 2 1 1 2 2 5 4 1 5 6 2 3 1
10 10 12 13 14 11 9 11 7 8 7 9 26 28 27 23 17 6 4 4 5 3 3 0 2 2 1 2 1 2 1 2 2 3 3 4 2 4 3 3 5 5 3 0
9 10 12 13 12 12 12 14 12 7 4 10 8 6 7 14 26 17 3 2 4 1 3 3 2 3 2 2 0 2 3 2 2 2 4 3 0 2 4 4 4 4 1 2
9 10 13 14 14 13 14 15 14 7 5 4 3 7 8 4 9 20 28 7 5 6 3 2 2 2 1 2 3 4 4 4 3 5 5 6 6 4 5 5 3 3 2 3
13 12 13 14 15 15 16 17 16 15 6 4 9 24 23 14 19 17 18 17 9 2 3 3 2 0 2 1 2 6 5 6 5 2 5 2 6 3 6 5 4 4 4 4
15 17 16 16 14 13 9 3 2 9 13 3 4 6 7 5 13 13 13 10 5 3 2 2 2 0 2 3 3 4 4 6 6 3 2 3 4 1 4 5 5 5 5 4
18 18 19 18 16 12 5 3 3 3 9 3 4 5 3 8 8 4 3 8 3 3 2 3 3 3 2 3 7 7 3 3 2 1 3 4 2 1 7 6 6 6 7 6
18 21 24 21 13 9 5 11 14 7 3 3 3 4 3 10 5 4 4 4 3 3 2 2 3 2 3 4 5 6 1 3 4 2 2 4 4 6 4 5 6 7 7 6
23 23 14 3 0 2 2 5 9 13 5 2 3 3 2 4 1 3 2 2 2 1 2 3 3 3 5 6 6 5 3 1 1 2 4 5 6 5 6 6 7 7 7 8
20 5 3 1 1 7 2 2 2 3 2 3 3 2 4 3 2 4 3 1 2 2 3 2 3 3 6 3 5 5 4 2 2 4 3 2 6 5 7 8 8 8 9 10
5 3 2 5 3 2 1 2 3 3 3 4 4 6 4 2 2 1 1 2 2 2 3 2 2 3 3 4 4 3 3 2 2 3 5 5 7 8 9 10 9 10 12 10
7 11 10 4 2 2 3 3 3 4 4 3 3 4 4 2 1 2 2 2 1 2 2 2 3 1 4 4 3 2 2 3 4 4 5 6 7 8 8 8 8 11 13 14
4 3 3 2 2 4 4 3 2 3 2 2 2 2 2 3 1 2 2 4 3 3 3 3 0 5 4 4 3 4 4 4 4 4 5 5 6 6 6 7 9 10 11 8
2 2 5 3 3 2 3 3 4 3 3 5 4 2 1 1 2 2 3 2 2 3 4 3 3 6 6 4 3 3 3 4 4 5 6 5 5 5 6 7 9 9 8 9
2 2 4 4 2 2 2 3 3 2 4 4 3 2 1 1 2 2 2 3 4 3 1 1 3 7 7 6 4 3 1 1 2 3 4 5 6 6 6 8 9 9 9 8
2 4 4 5 5 3 3 3 4 2 5 3 2 2 1 1 0 2 3 2 2 1 1 2 4 5 6 5 3 2 1 1 1 2 4 5 6 7 6 6 9 8 9 10
3 4 5 6 6 6 4 4 4 5 4 3 3 2 2 2 1 2 2 1 1 1 1 2 4 5 5 4 3 2 1 2 3 4 5 6 6 6 6 7 11 10 9 9

GFSNW_925_spd_078.txt.gz
Wind_Speed
28 28 32 35 37 41 19 6 1 9 14 3 2 4 5 2 8 4 6 5 8 9 9 10 5 7 6 6 6 4 5 4 4 3 4 12 4 7 5 2 4 2 2 4
25 27 29 33 37 33 17 5 3 8 12 4 3 9 8 2 5 8 7 7 6 7 5 4 6 6 7 7 6 3 4 1 5 6 3 3 5 9 4 0 2 4 2 2
24 25 28 31 38 27 16 4 5 4 2 1 3 5 6 9 4 4 6 7 5 7 7 8 5 3 5 5 4 9 4 3 4 3 5 8 5 14 11 4 2 2 2 4
22 24 27 30 36 23 9 4 3 2 4 4 10 7 6 9 11 8 7 4 9 8 5 6 4 3 4 2 3 1 4 5 7 8 8 7 7 10 11 5 5 2 3 7
20 22 25 27 32 23 10 3 3 3 4 10 9 9 8 8 8 6 8 9 10 11 6 6 6 7 6 4 4 3 3 3 5 4 5 6 5 5 7 7 4 2 5 6
18 19 21 22 23 20 7 8 6 2 6 6 5 4 6 7 15 8 6 8 6 6 5 8 7 2 3 3 6 3 4 4 1 1 3 5 2 6 7 5 4 5 4 3
15 17 17 18 17 18 10 8 3 2 3 5 5 7 10 9 13 7 9 8 5 4 7 7 7 3 5 6 4 3 3 3 3 3 2 2 3 5 2 5 6 5 5 5
12 15 14 16 15 15 11 8 5 2 4 7 5 12 7 12 12 8 3 5 4 6 6 3 2 2 1 5 6 6 6 2 2 1 2 4 2 2 3 5 4 7 4 5
11 13 13 13 14 14 12 6 6 3 4 1 8 10 5 4 5 7 4 3 5 5 2 2 1 0 2 2 0 1 2 3 2 2 0 2 3 4 3 2 2 5 6 6
12 11 12 13 15 14 12 7 8 3 4 6 8 3 5 3 3 5 4 6 5 2 3 2 2 1 2 1 1 0 1 2 1 1 2 3 5 4 2 1 3 5 6 5
11 11 11 13 13 12 9 9 9 1 3 11 6 5 5 5 2 3 6 4 2 3 2 2 2 3 2 3 2 2 1 2 1 3 0 1 2 2 1 3 4 3 0 3
10 10 10 12 13 11 12 6 10 9 4 7 25 31 28 25 19 6 3 3 3 3 2 3 2 2 1 3 1 1 1 2 0 2 1 2 4 5 4 3 2 3 2 4
10 10 10 12 13 13 11 13 12 12 3 9 6 5 11 11 23 22 3 2 4 3 4 2 2 2 2 2 2 4 3 2 1 2 4 4 4 7 6 4 4 4 5 4
11 11 13 13 12 15 13 14 14 8 4 4 4 10 10 6 6 18 24 10 4 4 4 2 2 2 1 2 1 1 1 1 1 3 3 6 6 7 5 4 6 5 4 3
12 14 14 15 15 15 15 20 21 14 5 3 7 24 20 11 19 19 17 16 6 2 3 2 2 1 1 1 1 2 4 3 2 1 5 3 5 6 6 6 6 5 5 4
14 17 15 15 18 17 8 3 6 4 8 3 3 6 8 12 7 19 12 9 3 2 2 2 3 2 0 2 2 4 3 2 4 2 4 4 4 7 7 5 5 4 5 4
18 17 18 16 17 14 5 3 2 9 6 2 4 4 2 5 6 5 3 8 3 2 2 3 2 2 2 2 3 3 2 5 7 6 4 2 5 2 4 4 5 6 5 4
19 20 21 18 10 5 4 8 12 11 3 2 3 4 4 4 3 3 4 4 3 3 1 1 3 2 1 4 7 4 5 6 6 6 6 3 3 1 2 3 5 5 5 5
24 21 11 2 4 2 4 8 3 8 4 3 2 3 4 8 2 3 3 2 2 1 3 3 2 3 4 5 4 6 4 4 3 3 1 2 2 4 5 5 5 4 5 5
15 6 2 1 3 7 9 2 0 2 2 3 4 3 3 1 3 2 2 2 3 3 3 1 2 3 2 4 5 5 6 6 3 2 1 3 3 4 5 4 4 5 5 5
6 5 2 7 8 3 0 2 2 2 3 3 3 5 4 2 4 1 2 2 1 2 2 2 2 3 2 5 5 4 4 3 3 2 2 3 4 5 6 6 5 7 9 8
8 11 7 4 2 1 2 2 2 3 3 2 2 3 4 3 3 2 2 2 1 2 2 1 3 1 5 5 5 4 4 4 4 5 4 4 5 6 6 5 6 8 10 12
1 1 2 1 1 2 3 3 2 4 3 2 4 4 4 2 2 1 1 3 2 2 2 3 3 3 5 5 5 5 5 5 5 5 6 5 6 6 6 6 8 9 10 10
2 3 4 1 2 1 2 1 3 3 3 7 7 4 3 0 2 2 3 2 2 2 3 4 2 4 5 5 4 4 3 3 4 4 6 6 6 6 6 7 9 9 9 11
1 1 2 4 2 1 3 4 4 3 3 6 4 3 2 1 2 2 2 3 3 3 1 0 1 5 5 5 4 3 3 2 2 3 4 5 6 6 7 8 10 10 10 10
2 4 2 4 2 2 2 4 6 2 6 4 2 3 2 2 1 2 3 1 2 1 1 0 3 4 4 4 4 4 4 4 4 4 5 6 7 7 8 6 11 12 11 11
3 4 5 6 6 5 4 4 6 7 4 3 3 4 3 2 1 1 0 2 1 2 0 1 2 4 5 5 3 3 3 3 3 4 5 6 7 6 7 6 13 14 11 11

GFSNW_925_spd_081.txt.gz
Wind_Speed
26 28 30 33 37 37 24 6 3 13 15 4 2 2 7 3 6 3 5 5 6 4 4 5 3 4 3 5 4 3 1 4 5 3 2 4 4 6 4 4 4 2 3 5
24 26 31 34 36 30 14 3 2 9 9 4 3 6 4 4 3 5 5 4 4 9 5 4 3 4 5 6 3 1 2 3 5 5 7 4 6 5 3 5 3 4 5 4
23 25 28 33 36 26 6 2 4 4 4 0 4 5 5 9 7 4 7 4 7 9 7 7 3 2 4 6 2 8 6 1 2 4 3 8 7 11 5 5 3 3 4 3
21 23 27 31 35 22 5 4 3 2 4 4 8 8 7 7 9 6 6 5 9 6 5 5 6 5 4 4 9 6 4 4 6 6 5 5 11 13 8 4 4 4 3 7
20 23 26 28 30 19 8 3 3 3 4 9 6 9 8 6 6 4 9 5 10 7 4 3 3 6 6 3 7 5 4 4 3 5 6 6 6 9 10 6 2 5 1 2
18 20 21 23 25 21 8 7 5 0 6 7 5 4 6 7 12 6 10 8 5 5 5 6 8 5 5 2 2 5 3 4 2 1 4 6 3 5 6 4 5 5 4 4
15 18 18 19 20 18 7 6 2 2 4 4 3 7 4 9 11 6 11 7 5 3 7 7 4 3 4 7 7 4 2 2 2 3 3 1 4 1 4 6 4 4 3 5
13 16 15 15 16 16 13 6 4 2 4 4 6 10 5 10 10 7 5 3 3 6 5 3 3 4 3 2 5 6 3 3 2 3 2 2 0 3 4 5 5 5 6 5
10 14 14 14 15 16 15 4 6 1 2 3 5 6 6 4 6 8 5 6 9 4 1 1 1 1 1 1 1 5 5 4 4 2 3 2 2 2 2 3 2 4 7 5
9 12 14 13 14 15 13 5 6 1 2 4 3 2 4 2 2 4 6 8 7 3 3 2 1 2 1 2 2 2 3 3 2 1 2 2 2 2 2 3 3 5 6 6
9 11 13 12 13 13 13 13 7 2 2 7 5 1 2 3 0 3 6 6 2 3 4 3 2 2 1 2 2 1 2 2 1 1 2 1 3 3 2 2 2 5 4 4
8 11 12 12 14 13 12 4 14 11 6 6 24 28 30 26 24 6 2 4 5 1 2 2 2 2 3 1 2 3 1 3 3 3 3 2 1 4 2 2 3 2 3 3
8 11 12 13 13 14 12 12 14 12 2 6 2 6 6 10 16 20 4 3 5 4 3 2 2 1 2 1 2 2 3 1 1 2 1 4 4 4 4 4 4 4 3 3
8 10 13 15 14 15 14 12 17 9 4 3 5 10 9 10 18 16 27 11 6 5 4 2 2 2 1 2 2 2 4 2 1 2 3 6 4 4 3 5 6 6 5 2
10 12 15 16 16 16 19 17 12 10 6 3 6 20 18 6 9 22 24 15 6 1 3 2 2 2 2 2 1 2 3 4 3 3 2 3 2 2 3 6 4 4 4 3
13 16 18 16 16 16 6 3 2 7 1 3 4 5 6 17 8 12 13 9 3 2 3 2 3 3 1 0 2 4 3 3 6 4 2 4 6 5 2 3 4 3 2 2
15 20 19 20 18 13 4 3 4 9 10 3 4 4 4 6 2 3 2 7 2 3 2 3 3 2 3 2 3 2 3 5 5 4 5 3 1 3 2 3 3 4 4 4
17 23 23 19 10 4 5 3 9 8 2 2 3 4 4 8 2 3 3 4 2 4 2 1 2 1 1 3 4 2 4 6 5 5 5 5 3 2 4 3 3 4 4 4
21 18 8 2 2 1 3 11 6 3 1 2 2 2 3 2 3 2 3 3 3 1 3 3 2 3 4 5 4 1 1 2 5 2 3 2 4 4 3 3 4 3 4 4
13 6 3 1 4 8 11 0 1 1 1 1 3 2 3 2 2 2 2 2 2 2 3 1 2 3 2 3 4 5 4 4 3 2 3 2 1 3 2 3 2 2 3 4
7 6 2 6 9 3 1 2 2 1 1 2 2 3 3 2 4 2 2 2 2 2 3 3 2 3 2 4 5 3 3 4 4 3 1 1 1 2 3 3 4 4 6 5
6 8 7 3 2 1 0 2 2 1 3 2 2 3 4 3 3 3 2 2 1 2 2 1 3 1 3 5 5 4 4 5 6 7 5 4 5 5 4 4 5 7 8 9
4 2 2 1 1 3 2 3 3 3 2 2 4 7 3 2 3 2 2 3 2 3 2 3 3 2 3 5 4 4 5 6 6 6 8 8 7 7 6 6 8 8 8 9
3 3 5 3 3 2 1 1 2 4 3 7 8 4 3 3 2 2 2 1 2 2 2 4 1 4 4 4 4 4 4 4 5 5 6 7 8 7 7 8 9 9 9 10
0 2 3 3 3 1 2 3 5 4 3 6 6 3 3 3 3 2 2 3 2 3 2 1 1 4 5 5 4 4 4 2 2 2 3 5 5 5 7 5 10 9 11 11
2 3 4 3 3 4 3 2 3 2 5 4 3 3 3 3 2 2 3 3 2 1 2 1 2 4 4 5 4 4 4 3 3 4 4 4 6 6 5 6 11 12 11 12
3 4 4 2 2 5 3 3 3 4 3 2 3 4 3 4 2 1 1 2 1 2 2 1 1 4 6 6 4 2 2 3 3 2 4 4 7 5 8 7 13 12 11 11

GFSNW_925_spd_084.txt.gz
Wind_Speed
24 26 30 33 36 35 16 3 2 11 6 4 2 3 8 6 6 2 7 3 5 4 1 3 5 1 2 17 6 14 12 4 7 11 2 6 3 5 3 4 4 0 3 5
23 25 29 33 34 30 8 2 2 8 7 4 3 6 6 4 7 6 4 4 4 5 5 1 3 4 2 14 10 15 11 2 4 4 3 3 5 5 3 4 3 4 5 5
20 24 28 32 34 27 3 3 4 4 4 1 2 5 5 8 7 5 7 4 5 6 6 6 5 6 3 2 7 3 5 2 4 5 4 6 6 6 6 5 3 4 4 3
18 23 25 29 33 24 4 4 2 2 3 4 6 7 8 7 9 8 9 5 9 5 4 6 6 5 6 4 6 5 1 3 3 6 3 6 10 10 8 4 4 5 3 6
17 22 24 27 30 19 9 3 3 4 3 7 6 7 6 9 7 4 6 9 15 5 3 1 3 5 4 2 6 4 4 3 2 6 3 5 5 9 7 3 3 3 1 4
15 19 20 22 23 20 7 5 2 2 5 5 3 2 6 7 14 7 10 12 10 4 4 5 7 6 6 6 3 5 2 4 2 2 3 5 2 10 10 4 4 4 4 5
12 16 16 18 19 20 7 5 0 3 3 3 2 3 9 9 12 9 13 14 3 4 8 8 3 4 1 5 5 3 2 3 2 3 3 0 2 1 7 7 6 5 3 2
9 13 14 15 16 17 13 6 4 2 3 3 5 8 6 8 8 6 7 6 3 10 5 4 3 3 4 3 4 6 3 3 3 4 2 3 1 2 5 6 6 6 6 5
7 10 12 12 14 15 16 5 7 2 2 3 3 5 4 4 7 6 5 7 11 4 2 3 1 0 2 3 5 4 4 5 3 2 3 1 0 1 2 4 3 6 7 6
4 8 10 10 12 13 14 5 7 2 2 3 3 3 2 4 3 4 6 8 8 4 3 2 2 2 2 2 3 3 3 3 3 1 2 4 2 1 1 3 4 3 6 6
3 7 9 9 12 12 10 9 6 6 3 6 5 3 3 3 1 3 6 7 0 3 4 2 2 1 1 1 3 2 0 2 0 1 2 1 3 2 2 3 2 5 5 4
3 7 8 9 10 11 11 2 11 9 5 6 14 26 31 21 22 7 3 4 4 4 2 2 2 2 2 0 1 4 1 2 1 4 3 2 0 1 2 1 3 2 4 2
3 5 6 9 11 11 10 11 9 6 3 5 2 4 5 8 16 19 3 2 4 3 5 2 2 2 2 1 2 2 2 1 1 2 0 2 3 3 4 4 4 4 4 3
3 5 6 10 12 11 11 11 16 7 3 3 5 7 17 11 5 10 23 8 1 5 5 2 1 2 1 2 3 1 3 1 1 2 4 4 3 3 3 5 6 6 5 3
3 6 9 11 10 13 14 14 6 5 3 3 5 14 6 9 12 16 22 16 4 1 3 2 2 2 2 1 1 3 3 4 3 4 3 2 2 2 2 5 4 4 3 2
5 8 11 11 11 13 8 3 3 7 2 3 4 6 5 15 14 10 8 10 3 3 3 3 3 3 0 1 2 4 3 3 4 4 3 2 5 4 2 4 3 2 2 2
7 11 15 15 11 4 2 3 6 13 7 2 4 4 4 12 4 2 2 9 2 3 3 3 2 2 3 2 3 3 4 2 4 4 6 3 3 3 2 4 3 2 2 4
9 15 12 7 3 5 1 1 9 5 2 1 2 4 4 4 3 1 3 3 3 4 2 2 2 2 1 4 4 3 2 5 5 5 5 2 4 5 4 3 2 2 3 3
13 9 3 4 4 3 2 14 7 3 0 1 1 2 3 4 2 3 3 3 3 2 3 2 3 2 5 4 4 3 1 1 4 2 4 4 4 4 3 3 2 2 2 3
6 3 3 2 2 10 10 1 1 1 1 1 2 2 3 2 1 3 2 3 2 3 3 2 4 4 1 2 3 4 4 3 1 3 2 2 3 2 2 3 2 1 2 3
4 5 1 4 6 4 1 2 1 2 3 3 2 3 2 3 3 3 2 1 2 2 3 3 2 3 2 4 4 3 4 4 5 4 3 3 2 2 3 3 4 5 5 4
2 1 2 3 2 1 1 2 2 2 2 2 2 4 4 3 2 3 3 2 1 3 2 2 3 1 2 4 5 5 5 6 7 7 5 5 5 4 3 3 4 7 7 8
5 3 2 2 2 3 2 2 4 3 2 2 4 6 3 3 3 3 2 3 2 3 2 3 2 2 3 5 4 4 5 7 6 6 6 6 6 6 6 5 6 7 7 8
3 4 4 3 3 3 3 2 3 4 3 5 8 3 3 2 3 3 3 1 2 2 3 4 1 3 4 4 4 5 4 4 4 3 4 5 5 5 6 7 8 7 8 9
3 3 2 3 3 2 2 3 2 3 4 4 6 3 3 3 4 3 2 3 3 3 2 1 2 3 5 4 4 5 4 3 2 2 3 4 4 4 4 5 8 7 8 9
3 1 2 3 1 3 2 1 3 2 4 4 2 3 3 5 2 3 3 3 2 1 2 2 2 3 4 4 5 4 4 4 4 4 4 3 4 3 2 4 10 9 9 10
1 3 4 3 4 4 3 3 3 3 3 2 2 3 3 4 3 2 3 3 2 3 3 2 3 3 5 6 5 5 4 4 4 3 3 3 3 3 5 6 9 8 7 9

GFSNW_925_spd_087.txt.gz
Wind_Speed
23 27 28 31 35 32 10 3 3 10 2 3 2 3 8 6 5 0 5 3 4 4 1 5 8 8 6 13 14 10 4 2 3 7 1 8 4 6 5 3 4 1 3 4
22 26 26 30 31 26 6 2 1 8 5 3 3 6 6 4 6 8 6 4 4 9 4 2 2 3 9 18 12 17 11 6 3 3 2 4 9 5 5 5 4 4 4 4
20 24 25 29 31 26 3 3 3 4 4 2 3 5 5 9 7 4 8 4 6 6 5 5 4 7 6 16 13 16 17 6 5 6 3 8 10 14 8 5 3 4 4 3
18 22 23 27 29 22 3 4 2 0 4 4 7 6 6 9 10 6 9 4 12 5 4 7 6 4 4 11 9 7 8 1 3 3 4 9 11 14 12 9 6 4 3 6
14 19 21 24 29 15 9 3 3 3 2 4 6 8 6 8 8 5 5 9 17 8 3 2 5 6 3 2 1 4 3 3 2 6 4 5 4 9 11 6 4 5 2 4
10 15 18 21 26 18 6 4 3 1 4 5 3 3 5 6 10 6 9 11 15 6 5 9 10 7 5 5 3 1 2 4 2 2 4 6 1 9 11 5 4 6 5 5
7 11 13 16 19 18 9 5 3 3 2 2 2 4 6 9 12 6 12 11 7 4 17 12 2 4 5 3 2 2 2 2 2 3 2 0 4 1 9 8 5 6 2 2
4 7 10 12 15 16 14 11 3 2 2 3 4 7 5 9 8 4 7 6 7 13 6 4 3 3 4 3 4 6 4 3 3 3 2 3 0 2 5 6 6 6 5 3
1 4 7 10 12 14 10 10 5 3 1 3 3 4 3 4 5 6 3 9 12 4 2 2 1 0 2 3 7 3 4 6 3 1 3 2 1 1 2 3 4 6 7 6
1 3 6 8 9 10 8 6 7 3 0 3 2 2 3 4 3 4 5 7 7 4 4 2 2 2 1 2 3 4 3 3 2 1 1 3 3 2 0 3 4 3 6 6
3 2 3 6 7 7 8 3 7 4 1 4 3 3 2 4 1 2 5 4 2 3 3 2 2 1 1 1 1 0 0 2 1 1 3 1 1 1 4 3 1 4 4 4
5 2 3 4 5 5 6 0 6 3 3 5 13 19 24 19 19 2 2 3 2 3 3 3 2 2 2 0 2 2 0 3 2 4 3 3 3 1 2 0 3 3 3 2
6 3 2 2 4 3 3 2 6 2 2 4 3 3 2 7 11 18 2 2 1 2 3 3 2 3 1 1 2 2 2 2 1 1 2 1 2 3 4 4 4 3 3 4
6 4 1 3 3 4 5 4 5 0 1 3 5 8 12 19 11 14 23 2 2 1 2 3 2 2 1 2 3 2 4 2 1 1 1 2 2 2 3 4 5 6 5 3
6 3 1 4 3 5 6 4 6 3 2 2 5 18 5 11 7 13 16 13 2 1 3 2 2 1 2 1 1 3 3 4 3 3 3 3 2 3 2 4 4 4 4 3
4 2 3 6 5 4 1 2 7 6 4 3 3 4 5 14 14 5 7 9 3 3 1 3 3 3 1 2 2 4 3 2 2 2 2 2 5 4 2 4 3 3 4 3
3 3 6 6 2 3 3 4 2 6 6 1 3 4 4 7 5 1 2 6 2 1 2 3 2 2 0 2 3 3 4 3 4 5 3 3 0 1 4 4 3 3 4 4
2 5 3 7 11 9 5 5 6 5 3 1 2 4 4 2 2 1 3 3 2 5 2 2 2 2 2 4 4 4 1 4 5 6 5 3 5 5 5 4 4 4 4 3
3 6 10 5 2 2 1 6 5 5 3 1 1 2 4 4 1 2 2 3 3 2 3 2 2 2 4 4 4 3 2 0 4 3 4 5 5 5 4 4 5 3 3 4
8 7 3 2 1 5 2 1 2 2 1 0 2 2 3 2 2 3 1 2 2 2 4 2 3 4 1 2 2 3 3 3 1 2 1 2 2 3 3 3 3 3 3 4
3 2 1 2 1 1 2 2 2 1 1 1 2 3 4 2 3 2 3 2 2 2 2 2 2 3 1 2 3 3 3 5 5 5 5 4 4 3 3 3 4 5 7 6
4 8 6 3 3 3 3 1 1 1 2 1 2 3 4 3 3 3 3 3 2 3 3 2 3 2 2 3 3 4 4 5 6 7 5 5 6 5 4 4 5 7 7 7
6 3 3 3 2 5 3 1 4 2 1 2 4 5 3 3 3 3 3 4 3 1 2 3 2 1 2 4 3 4 4 5 5 5 5 5 6 7 7 6 7 7 7 8
3 3 3 3 3 3 3 3 4 4 3 2 5 3 2 3 3 3 4 2 1 2 2 4 1 2 3 4 3 4 4 4 3 3 4 4 4 4 5 5 6 6 7 9
3 3 2 4 2 1 2 1 1 2 1 2 3 3 3 2 4 3 3 3 3 3 1 1 3 4 3 4 3 4 4 3 1 0 2 2 3 3 3 5 6 5 7 8
3 3 2 1 2 3 1 2 3 2 0 1 1 3 3 4 4 3 4 2 1 2 3 3 4 3 3 3 4 4 4 4 3 3 2 1 2 2 1 2 7 6 6 7
2 1 2 2 1 4 3 3 3 2 2 2 2 3 4 4 3 2 4 4 4 6 4 3 4 5 3 4 5 6 4 2 2 2 1 1 1 2 3 3 6 5 5 6

GFSNW_925_spd_090.txt.gz
Wind_Speed
20 24 27 29 31 28 6 2 3 8 1 3 2 2 6 8 5 8 4 3 4 4 2 5 6 6 7 12 12 10 5 3 3 4 3 7 3 7 6 3 1 1 2 4
18 23 25 26 28 23 5 2 1 5 4 3 3 5 3 4 7 7 8 5 6 6 3 4 2 4 4 15 12 14 8 3 3 3 4 3 7 5 5 6 3 3 3 3
16 20 23 25 26 20 1 3 3 4 4 2 2 5 4 7 6 3 7 4 6 9 5 6 5 7 4 9 8 8 13 4 5 4 4 6 6 8 5 6 3 4 4 6
13 17 20 23 24 16 1 3 1 2 3 3 4 4 6 8 11 7 9 2 11 9 4 6 7 5 3 6 8 6 4 7 6 4 7 8 14 14 11 4 4 6 4 6
10 14 17 21 22 8 8 3 3 2 1 2 4 8 6 4 4 5 7 8 15 10 2 3 6 7 3 1 9 6 4 2 5 4 4 5 8 10 14 13 4 5 2 4
8 10 13 18 19 9 6 3 2 3 3 3 2 2 4 5 9 6 6 11 12 8 4 11 14 9 9 4 1 7 4 2 2 2 1 5 1 11 15 6 5 12 7 7
5 6 9 14 14 16 7 2 3 3 2 2 1 2 2 4 7 6 10 13 6 4 15 13 3 3 6 5 4 4 3 2 2 2 1 2 1 2 8 8 6 6 3 4
2 3 4 8 11 10 13 5 2 2 2 2 1 5 2 7 6 4 6 4 5 13 7 5 4 2 4 2 2 4 1 3 3 4 3 4 2 2 4 6 5 6 5 4
4 1 2 5 7 4 11 10 5 3 4 3 2 2 1 3 6 6 3 8 11 4 1 3 3 2 2 5 8 2 2 4 3 2 2 1 2 2 0 3 4 3 8 7
6 3 3 3 5 5 4 6 5 3 2 3 3 1 1 1 3 3 5 8 8 5 4 2 3 2 1 2 4 4 4 3 2 2 1 3 3 3 1 3 3 2 4 5
7 5 4 1 3 5 3 3 5 4 1 4 5 3 2 1 2 2 5 4 2 4 4 3 2 1 2 2 2 2 1 1 0 1 2 0 3 1 3 3 3 2 4 4
9 6 4 1 2 4 4 0 5 3 2 3 5 12 13 11 10 2 2 2 2 3 3 3 2 2 2 1 3 3 1 2 2 3 3 3 3 1 2 1 2 3 4 2
10 7 4 1 1 2 4 3 5 3 1 3 3 3 1 2 7 13 3 2 1 2 0 2 2 3 1 2 2 3 3 2 0 2 1 1 1 2 3 3 3 3 4 4
11 8 5 1 0 2 3 1 3 1 2 2 4 6 10 5 5 8 19 1 3 1 2 2 3 2 2 2 3 2 4 3 1 3 3 1 1 1 2 4 5 6 6 4
12 9 5 1 1 3 3 7 4 4 2 1 4 16 2 5 5 7 11 11 3 1 3 2 2 2 1 1 1 3 3 3 3 3 3 2 1 3 2 4 4 4 4 3
12 8 4 0 0 1 2 3 2 4 4 2 2 4 4 9 11 4 5 7 2 3 2 3 3 3 2 1 2 4 2 3 3 2 1 1 4 4 2 3 3 3 4 4
10 7 2 2 4 5 2 3 2 2 2 1 3 4 3 6 3 1 1 3 2 3 2 3 2 3 1 2 3 4 3 4 2 3 3 3 1 2 4 5 4 5 5 7
10 5 6 10 11 10 4 4 3 3 4 2 1 3 4 6 3 2 2 2 1 3 3 3 3 1 3 4 4 3 2 2 2 4 4 3 5 4 4 4 3 5 5 4
10 15 16 8 1 2 3 2 5 6 4 2 2 2 3 5 2 2 2 3 3 3 3 3 2 2 5 5 4 0 2 1 1 2 4 4 4 4 4 4 5 3 3 4
21 11 3 1 2 4 7 1 2 2 2 1 2 1 3 1 2 2 3 2 2 2 4 1 3 4 1 3 2 2 3 3 1 1 1 1 2 3 2 3 2 2 2 3
6 3 2 5 5 3 2 2 2 0 2 0 2 3 3 1 2 2 2 3 2 2 3 2 2 3 1 1 2 2 4 5 5 5 4 4 3 2 2 2 3 4 5 4
9 12 8 4 2 3 4 1 0 1 2 0 1 2 3 3 2 3 2 3 2 4 1 2 2 2 1 1 2 3 4 4 5 6 4 4 5 4 3 3 4 5 6 7
10 5 3 2 2 5 4 3 3 1 2 1 2 3 2 2 1 4 2 4 4 1 3 3 1 3 2 2 2 2 3 4 4 4 5 6 7 7 7 5 7 6 7 9
3 4 1 2 1 3 3 4 4 3 3 1 1 2 1 2 2 3 3 3 2 3 1 3 2 5 4 3 2 2 2 4 3 2 2 2 2 3 4 6 6 6 7 8
2 2 3 3 2 1 1 1 2 2 2 2 2 2 1 2 3 3 4 3 2 2 2 3 6 9 7 3 3 3 4 3 2 1 2 2 3 3 3 5 6 6 6 8
3 3 4 2 3 2 1 3 3 1 1 1 0 2 3 4 3 3 3 6 4 4 4 6 7 8 7 4 4 3 5 4 3 2 2 1 0 0 0 1 6 6 6 7
2 1 2 3 2 3 2 3 3 3 2 1 1 2 4 3 3 3 2 1 2 4 7 6 7 8 8 3 3 5 6 3 3 1 0 0 0 0 1 1 4 4 5 6

GFSNW_925_spd_093.txt.gz
Wind_Speed
14 20 21 24 27 25 4 2 3 6 2 3 2 2 4 7 6 5 3 3 6 5 3 3 4 4 5 9 8 7 5 2 3 2 5 5 2 5 4 3 3 2 1 2
13 18 19 23 26 21 4 2 0 4 1 3 3 4 2 2 5 5 6 4 9 9 4 4 3 3 2 9 9 7 6 1 3 2 3 3 4 4 4 3 3 1 2 1
11 16 17 21 24 16 3 3 2 4 4 2 2 4 4 6 5 1 5 3 5 6 2 2 5 7 3 4 5 6 7 1 3 4 3 5 4 6 3 4 2 1 3 3
9 15 16 20 22 12 2 3 1 1 2 3 3 2 4 5 7 4 5 1 11 7 3 5 7 5 5 2 3 2 3 4 4 7 7 5 8 15 11 5 4 4 3 5
7 12 14 19 20 8 7 3 3 2 1 2 2 5 4 4 5 3 4 7 14 10 4 2 5 6 2 3 4 3 0 3 4 3 4 7 4 12 14 14 5 2 1 2
4 8 11 16 18 9 5 3 3 3 3 2 2 1 3 3 5 5 5 7 8 8 3 10 14 10 10 2 6 8 5 3 1 1 2 4 2 10 15 8 5 6 6 5
1 4 7 12 14 15 6 3 4 3 1 1 1 1 2 3 4 3 7 8 4 3 14 13 2 3 7 5 5 8 5 3 2 1 1 2 2 3 10 12 8 5 3 3
4 0 3 7 8 12 13 4 2 3 2 1 2 2 2 6 5 3 4 2 3 11 7 5 3 2 2 2 2 5 5 2 2 1 1 4 2 2 4 7 5 7 6 4
7 4 3 4 5 4 8 9 4 3 4 2 1 1 1 3 4 5 3 6 13 4 1 3 3 1 1 4 7 1 1 2 3 2 1 1 1 4 2 5 1 1 7 8
11 7 6 4 4 4 3 6 7 4 2 1 2 2 0 1 2 1 4 8 8 6 4 3 3 2 1 2 3 4 3 3 2 0 1 3 3 5 2 2 3 2 5 5
14 10 8 5 3 3 2 6 7 4 2 2 3 2 1 1 2 2 4 1 2 5 5 3 2 2 2 2 2 0 1 1 1 1 1 2 4 3 2 2 3 2 3 4
16 13 10 6 2 2 2 3 4 2 3 2 3 7 10 6 7 3 2 1 2 3 3 3 3 1 2 2 2 2 1 2 2 3 3 2 3 2 2 1 2 3 4 3
18 15 12 8 5 2 3 3 3 3 2 2 2 1 0 1 7 7 1 1 1 1 1 2 2 3 1 2 2 2 2 2 1 2 2 3 3 3 4 4 4 4 5 4
20 16 13 8 7 3 1 4 3 3 3 3 3 3 1 1 1 4 12 1 3 1 0 2 3 2 2 2 2 2 3 1 2 3 3 3 1 2 3 5 5 6 6 4
20 17 13 10 8 4 7 10 9 8 1 3 2 5 1 4 1 2 5 7 2 1 2 1 2 3 1 1 0 3 3 3 2 3 3 2 2 3 2 4 3 5 4 5
21 18 13 10 9 9 4 2 3 5 3 3 1 2 3 4 5 5 4 6 2 2 1 3 3 4 1 2 3 4 3 2 3 2 1 2 4 4 2 4 4 5 6 5
21 17 12 9 10 7 4 4 3 1 1 2 2 3 3 4 2 1 2 3 2 3 2 3 3 3 0 2 4 4 3 1 1 2 2 2 2 3 4 6 5 7 7 7
20 15 13 16 16 13 7 7 4 4 4 4 2 3 3 6 3 2 1 2 2 3 3 2 2 1 1 4 4 3 2 3 3 3 3 2 5 5 4 4 3 4 4 2
20 23 23 13 3 3 4 9 9 7 4 3 2 2 3 4 2 2 2 2 2 3 3 3 2 2 5 4 4 1 1 1 3 3 4 4 5 4 3 3 4 3 1 2
31 21 3 2 3 13 11 2 3 3 3 2 2 2 3 2 3 3 3 2 2 2 4 1 3 3 1 3 2 2 3 3 1 2 1 2 2 3 2 2 2 3 3 4
7 4 2 8 12 3 3 2 2 1 2 1 1 3 3 2 2 2 1 3 2 2 2 2 2 1 3 5 3 3 3 3 4 4 4 4 4 3 2 3 4 5 5 5
12 16 14 7 2 3 5 1 0 2 3 1 2 3 3 3 1 2 1 3 2 4 1 2 2 2 4 5 4 3 3 3 4 6 5 6 6 6 6 5 5 5 5 6
11 5 4 2 2 5 5 4 3 1 2 2 1 2 1 2 1 3 3 3 4 1 2 1 1 4 6 5 3 2 2 2 3 4 4 5 6 6 5 4 5 4 5 6
3 4 4 2 1 3 4 4 4 3 3 2 2 0 1 1 1 2 3 4 3 2 1 1 3 9 10 9 4 4 2 1 2 2 2 2 3 4 4 5 5 5 7 7
3 3 4 3 2 2 2 2 3 0 2 3 2 1 2 2 2 2 3 3 2 3 3 2 6 10 10 10 7 5 3 3 2 3 1 1 2 4 4 5 4 4 5 6
3 3 4 3 3 1 1 3 3 2 2 1 2 1 0 3 2 2 5 3 2 2 2 3 4 6 8 9 8 4 4 6 4 3 3 2 1 2 2 1 3 4 4 5
3 1 3 3 3 4 3 4 3 7 3 2 2 3 6 1 2 3 3 4 3 3 3 3 5 8 9 7 7 2 6 6 2 1 1 1 1 1 0 1 1 2 3 4

GFSNW_925_spd_096.txt.gz
Wind_Speed
7 11 13 15 18 12 3 3 0 5 3 0 1 2 3 4 6 4 2 2 6 5 6 2 3 2 2 10 11 8 4 2 4 4 1 2 7 4 5 3 3 1 4 4
5 9 11 14 16 10 4 2 1 3 1 1 1 1 3 2 5 5 5 4 5 4 4 3 5 5 2 9 11 11 7 3 4 2 4 4 5 5 5 3 2 0 1 5
2 7 9 13 15 7 4 2 1 2 3 1 2 3 4 5 5 2 4 3 4 8 3 4 6 3 3 1 6 4 7 2 4 1 1 5 6 9 8 3 2 0 7 7
1 5 8 12 14 4 4 2 2 1 1 2 2 1 4 5 5 3 4 3 8 5 4 7 7 5 3 1 3 2 5 3 4 8 10 5 5 12 13 9 10 3 5 2
2 2 6 10 12 3 5 2 3 2 2 0 2 3 2 5 5 3 1 4 10 6 3 4 5 7 4 4 4 3 2 2 2 3 6 10 9 11 16 16 11 9 1 2
6 3 4 8 11 3 4 3 2 1 2 2 2 1 2 3 6 4 5 7 6 7 5 12 15 11 9 2 5 8 5 3 2 2 2 8 5 14 18 15 11 10 8 3
10 6 5 7 10 9 7 4 4 2 3 2 1 1 2 5 6 4 8 6 3 5 17 14 2 3 4 5 8 6 6 4 3 2 2 2 3 2 10 16 14 14 7 2
14 10 7 6 8 11 13 6 2 2 3 2 2 2 3 6 4 3 4 3 6 13 8 3 2 2 3 3 5 12 8 4 2 2 2 2 1 2 2 11 12 14 16 12
18 13 9 7 7 7 13 10 6 2 3 2 1 1 2 3 5 2 2 5 10 7 2 2 2 2 3 2 2 5 4 9 4 1 1 1 2 3 2 4 5 2 13 13
20 16 12 9 7 7 6 7 6 3 3 2 1 2 2 2 2 3 3 7 8 8 4 3 4 2 1 2 4 3 1 1 2 1 0 2 2 4 1 4 3 6 5 11
22 19 15 11 8 8 5 8 7 3 3 2 2 2 1 0 2 3 5 3 3 5 3 3 2 2 3 2 1 4 3 2 1 1 1 1 4 2 3 3 4 3 3 6
25 21 17 13 9 8 7 5 5 6 4 3 2 3 4 3 3 3 3 2 1 3 1 2 3 1 2 3 1 2 1 3 3 2 3 2 3 3 3 3 2 4 6 5
27 23 18 15 11 7 6 9 8 4 3 2 2 1 0 2 8 4 2 1 1 2 1 1 0 3 2 2 2 4 2 1 3 3 1 1 1 2 3 4 5 6 6 6
27 23 19 16 14 9 8 5 8 4 3 3 2 1 1 1 3 4 6 2 2 0 1 1 1 2 1 2 3 2 3 3 2 3 2 2 2 2 3 5 7 7 7 7
28 24 20 17 14 11 11 12 9 5 1 3 3 1 1 2 2 2 4 6 2 1 2 2 3 2 1 2 2 4 3 1 2 2 4 2 1 2 2 5 6 4 6 7
29 25 21 18 13 17 9 2 2 4 2 2 3 1 1 2 2 4 3 5 2 1 2 2 3 3 2 2 2 2 2 2 4 2 4 3 3 3 2 4 4 5 6 5
31 25 21 18 17 11 1 2 7 6 5 2 3 2 2 2 0 2 2 2 1 2 1 2 3 2 2 1 4 2 1 3 3 3 2 2 2 1 3 5 5 6 7 6
29 24 20 19 14 12 5 7 6 6 5 3 3 2 1 5 1 1 2 2 2 3 2 3 3 2 2 3 3 7 4 3 2 3 3 2 4 4 4 4 3 3 3 3
30 27 26 18 1 2 5 11 8 7 3 3 2 1 0 3 2 1 2 2 2 2 2 3 2 1 3 4 7 7 7 5 5 3 2 1 1 2 2 2 2 2 2 2
37 27 4 3 2 18 10 1 1 2 2 2 2 2 1 1 2 1 2 2 1 2 4 2 3 3 6 7 6 6 6 6 6 3 3 1 2 2 1 2 3 3 2 2
11 4 3 9 14 3 2 2 2 1 2 1 2 2 0 1 1 1 1 2 2 2 1 2 2 2 5 9 8 6 5 5 4 3 3 3 3 1 1 2 3 3 2 3
14 18 18 7 2 3 4 2 1 1 3 3 2 2 2 1 1 2 1 2 1 3 0 2 2 3 9 9 9 8 6 4 3 3 2 3 3 3 1 2 2 3 2 3
14 6 4 3 2 2 5 6 2 2 4 4 3 2 1 1 2 1 1 3 3 3 2 1 3 5 7 10 8 7 7 5 3 1 0 2 2 3 2 2 2 1 1 2
3 4 4 2 3 4 3 3 3 2 3 5 3 3 1 1 1 0 2 2 2 3 1 2 2 5 7 8 8 8 7 4 2 0 2 1 2 2 1 1 1 0 1 2
3 2 4 3 3 3 3 4 4 1 4 4 3 3 2 1 1 1 2 2 3 1 2 2 2 5 7 8 9 8 7 5 4 4 4 3 2 3 2 1 0 1 1 1
3 4 4 3 3 2 3 3 4 2 3 3 3 3 2 2 2 2 5 3 4 3 2 2 3 4 6 6 8 9 9 6 6 4 4 3 3 2 2 2 2 2 0 0
3 2 3 2 3 4 4 3 4 6 2 2 3 4 4 2 1 3 3 3 2 2 2 3 4 5 7 6 8 9 4 5 6 6 2 3 2 2 4 6 4 2 2 2

GFSNW_925_spd_099.txt.gz
Wind_Speed
9 6 7 7 7 2 6 2 1 1 4 1 2 1 0 3 3 3 2 3 7 7 7 3 1 2 3 7 9 5 2 3 3 0 5 2 3 4 4 3 2 3 3 4
9 6 5 6 5 3 3 1 1 1 2 2 1 1 1 2 3 4 5 3 6 6 6 4 5 4 2 6 10 5 4 3 3 2 1 2 4 6 4 4 3 2 3 5
11 7 5 5 4 5 4 2 1 2 1 1 4 2 3 3 0 2 3 5 4 7 5 7 5 2 1 1 6 6 7 5 7 4 5 3 4 7 8 5 3 1 7 11
13 8 4 2 1 7 4 1 1 1 1 2 1 1 3 3 2 1 2 3 5 5 3 7 4 2 3 1 2 3 3 4 4 7 4 3 3 8 11 8 9 3 6 9
14 9 5 2 1 9 2 2 3 2 2 2 3 0 2 5 4 2 1 3 7 5 3 3 4 6 4 2 4 2 1 2 5 7 8 11 8 10 13 14 11 8 4 3
16 11 6 3 3 8 3 2 2 2 3 2 2 1 2 2 5 3 3 6 8 5 5 11 12 10 7 1 4 8 3 3 3 2 4 7 5 12 11 10 9 11 5 1
19 14 9 6 5 7 4 4 4 3 4 3 0 1 2 4 4 5 4 6 5 7 15 13 3 2 4 6 6 5 4 6 5 1 6 3 2 3 7 13 9 10 3 1
19 16 12 9 7 6 6 6 3 3 3 3 3 2 3 4 2 3 5 5 6 11 9 3 4 5 5 6 7 8 6 3 4 2 2 5 1 2 1 5 5 14 12 12
21 17 14 12 10 9 9 6 3 1 4 3 2 2 2 2 3 4 1 4 8 6 3 2 2 2 3 2 5 8 11 11 4 4 3 2 4 3 3 1 5 4 5 11
23 20 17 14 11 8 6 5 5 0 4 3 1 1 2 1 1 2 2 5 5 4 2 2 2 2 2 2 3 1 3 4 6 5 2 4 5 4 2 4 4 7 4 6
26 22 19 16 13 11 6 7 4 2 3 4 1 1 1 1 1 2 5 3 1 3 1 1 1 2 3 3 1 2 2 3 1 2 2 1 5 2 3 6 6 6 4 4
28 24 20 17 13 11 7 5 5 6 4 5 3 0 1 2 3 2 3 2 1 2 3 2 2 1 2 3 2 1 0 3 3 4 4 4 3 4 5 6 5 6 7 5
31 26 21 18 14 11 7 9 8 6 4 4 4 3 1 1 2 2 2 3 2 2 3 3 2 2 2 3 3 4 1 2 3 4 3 3 4 3 4 6 5 6 7 6
32 27 23 19 15 11 10 6 7 2 1 3 3 1 2 2 1 0 2 1 0 2 1 1 2 1 3 2 4 4 5 6 5 5 3 2 1 3 4 4 3 5 7 7
32 27 24 20 17 13 11 7 3 1 3 2 4 3 2 2 1 1 1 2 1 1 2 2 2 2 2 2 2 4 1 4 3 3 8 5 4 2 2 2 4 4 4 6
33 29 25 21 17 16 9 2 1 2 1 2 4 3 4 1 3 3 3 3 1 1 2 2 3 2 2 3 2 4 1 1 3 3 8 5 2 2 2 2 2 3 4 4
34 29 25 20 18 14 5 2 4 6 1 1 4 3 3 1 2 2 2 3 1 1 1 2 3 2 2 2 3 7 8 7 7 5 5 3 2 1 2 4 4 4 5 4
35 30 24 21 15 11 5 3 6 5 1 2 2 3 4 0 1 2 1 2 2 3 2 2 3 2 2 3 5 10 11 10 5 8 6 4 2 1 2 2 1 1 1 2
38 33 28 18 3 4 3 7 8 5 0 1 1 3 3 1 1 1 2 2 1 1 2 2 2 3 3 6 10 10 11 10 10 10 7 4 2 2 1 2 1 1 1 2
42 25 5 3 4 16 9 0 1 1 1 1 2 0 2 1 1 1 1 1 1 2 3 1 3 1 5 7 6 7 7 7 8 8 5 7 6 4 3 2 2 3 2 2
11 5 3 10 18 3 2 2 1 1 1 1 2 1 3 1 1 2 1 1 1 2 2 2 2 2 2 7 8 6 6 5 5 6 5 5 5 6 4 2 2 2 3 3
13 19 20 8 3 1 3 2 1 2 3 3 3 3 2 3 0 1 2 1 1 2 1 2 3 1 3 5 7 7 7 6 5 4 5 6 4 4 4 2 2 2 2 3
12 6 4 4 1 2 6 7 3 3 5 5 4 3 2 3 2 1 1 3 3 2 2 2 1 1 3 5 7 8 9 8 6 6 5 5 3 2 2 2 1 3 3 3
3 4 6 5 4 3 3 2 4 3 5 7 5 4 2 2 2 1 2 2 2 3 3 2 2 2 4 6 7 9 9 8 8 6 4 3 5 4 2 2 2 3 2 3
3 3 4 3 4 4 3 4 4 3 6 5 4 3 2 2 2 2 2 2 4 4 2 2 1 1 4 6 6 8 9 7 7 6 5 4 3 4 4 3 2 2 3 3
2 3 5 5 4 4 3 4 5 3 5 3 2 3 3 2 2 3 6 3 5 2 2 1 1 2 4 5 6 8 12 11 9 8 7 5 5 4 3 3 3 3 3 3
3 3 4 3 5 4 4 4 5 8 3 2 2 4 2 3 2 3 3 4 1 2 1 0 2 4 6 5 8 10 10 9 6 7 6 5 3 2 1 5 6 5 5 5

GFSNW_925_spd_102.txt.gz
Wind_Speed
20 15 11 6 2 7 12 2 2 4 8 0 1 2 1 1 2 2 1 3 6 5 6 2 3 4 3 5 3 1 1 2 1 2 3 5 0 3 1 3 3 2 2 2
21 16 11 6 4 14 5 2 2 4 5 1 2 4 1 1 2 2 4 3 6 6 5 3 6 3 2 5 4 5 2 2 1 3 1 2 3 5 2 5 2 2 2 1
22 17 11 6 5 11 6 2 1 1 3 0 2 1 2 1 3 1 1 3 5 7 4 8 3 2 1 5 1 8 7 4 2 1 3 3 3 5 5 3 2 6 1 4
23 17 12 7 6 13 7 2 2 1 2 3 3 2 2 3 1 2 1 2 4 4 2 3 3 1 0 2 5 3 4 3 6 6 4 4 2 4 4 2 2 3 8 8
23 19 11 8 9 15 3 3 3 2 3 3 4 3 3 2 2 2 2 1 5 4 3 2 3 4 2 1 2 1 2 3 5 5 9 7 6 6 7 5 7 10 7 2
25 18 13 10 12 12 3 1 1 1 3 3 3 2 4 3 3 3 2 3 4 2 5 6 7 6 4 1 2 4 1 3 3 2 2 2 4 8 7 5 7 6 4 3
25 18 14 11 13 13 5 4 3 2 3 2 2 4 2 0 2 4 3 4 3 5 9 10 5 4 4 7 5 4 2 3 3 2 1 1 3 5 4 4 3 7 1 3
26 19 14 12 12 14 8 8 1 1 2 4 5 4 1 3 5 4 5 3 4 6 6 2 4 4 4 6 6 6 4 2 3 2 3 3 4 5 4 2 2 5 5 5
26 19 16 13 12 13 13 10 5 1 4 3 4 3 2 2 1 3 2 2 5 4 2 2 2 2 3 3 5 7 6 6 3 4 2 3 4 6 4 1 2 7 7 4
26 22 19 16 14 13 11 7 7 1 3 3 3 2 3 1 2 2 3 4 5 4 2 2 3 2 3 3 2 3 3 4 6 5 2 3 5 4 5 1 3 7 4 7
29 25 20 17 15 14 10 9 6 4 3 3 4 2 2 1 2 2 3 2 2 3 2 2 1 1 3 3 2 2 1 1 1 3 2 3 6 4 4 2 6 7 5 4
31 26 22 19 18 14 14 6 10 10 5 4 6 7 5 6 7 3 4 3 2 2 3 2 1 1 0 2 1 3 0 1 1 1 0 1 3 3 3 4 5 6 7 6
34 28 23 20 18 15 12 16 15 8 3 3 2 4 4 5 4 4 1 2 2 3 2 2 1 2 2 1 3 5 3 3 2 3 3 4 5 4 6 6 6 6 6 8
34 29 24 21 19 15 18 12 11 3 2 4 2 3 5 4 4 4 5 4 2 1 1 1 1 1 4 2 4 2 3 5 3 3 6 1 6 6 6 4 7 5 5 7
34 30 25 23 21 19 18 18 9 6 2 3 4 5 3 2 2 2 4 1 1 1 1 2 1 2 2 1 1 2 2 3 3 2 4 4 4 4 2 6 3 6 6 6
33 29 26 23 21 21 9 3 1 4 4 3 3 3 4 4 5 5 5 3 2 1 2 2 3 2 1 2 0 5 6 6 5 3 5 4 2 5 4 3 4 5 6 6
35 31 26 23 21 9 6 3 6 9 5 2 3 3 2 3 4 2 2 2 2 1 1 2 2 1 2 2 1 5 8 8 6 7 7 2 6 3 5 5 5 5 6 7
38 32 26 21 17 12 7 8 11 6 4 2 3 2 3 3 2 2 1 2 2 2 1 1 2 2 1 2 2 6 7 9 7 8 7 4 4 2 4 3 2 1 3 2
38 32 29 16 4 3 5 9 6 2 2 3 2 4 3 3 2 2 2 1 1 2 1 2 2 3 3 1 4 6 6 6 7 9 7 2 3 2 1 2 1 1 3 2
40 22 4 3 3 20 13 4 1 1 1 1 2 1 2 1 2 2 2 1 1 2 3 1 2 2 4 3 1 5 5 6 7 6 4 5 3 5 1 1 3 2 2 2
11 3 3 11 16 3 2 2 1 1 1 1 2 3 3 2 2 3 2 1 0 1 1 1 2 2 3 2 2 3 6 7 5 4 7 5 5 5 3 0 2 1 2 2
15 20 18 8 2 1 2 2 2 2 3 1 3 2 3 2 2 2 2 2 2 2 2 1 3 2 2 1 3 1 4 7 7 9 7 9 8 5 7 3 1 2 1 1
14 5 4 4 1 2 7 7 2 2 4 3 3 2 3 2 1 2 2 3 3 1 2 3 1 3 3 1 2 4 5 7 8 9 10 9 8 6 4 4 1 1 1 2
3 6 6 4 4 4 3 3 4 2 4 7 4 2 3 2 2 2 3 3 2 1 3 3 2 4 3 2 2 3 5 5 7 9 9 7 7 7 4 3 2 1 2 1
3 3 5 3 4 4 3 5 4 2 4 4 3 3 3 1 3 1 1 3 3 4 3 1 2 3 1 2 3 4 4 4 7 10 7 7 7 7 6 5 4 3 2 1
3 4 4 4 5 3 3 5 5 1 3 2 3 3 3 1 3 4 5 4 5 3 2 2 2 1 2 3 4 6 10 10 11 11 9 8 7 8 7 5 4 4 4 3
4 3 4 2 5 5 3 4 3 6 2 3 3 4 5 3 2 3 3 4 2 2 1 1 2 3 3 4 9 12 13 11 11 10 7 6 6 6 5 6 6 7 5 4

GFSNW_925_spd_105.txt.gz
Wind_Speed
32 26 21 15 12 11 19 3 1 8 10 2 1 2 4 3 1 2 2 2 4 3 5 4 2 2 1 4 5 4 3 0 2 1 2 3 3 1 2 3 0 2 2 3
32 26 22 17 15 22 9 4 3 5 4 3 2 2 4 2 1 1 2 3 5 6 3 2 3 3 4 5 4 2 5 3 3 7 4 1 2 2 1 3 3 5 2 3
32 27 22 19 17 23 5 3 2 1 1 2 2 2 2 3 2 2 2 1 3 3 3 6 2 2 1 5 3 7 4 2 2 2 5 1 2 2 2 4 2 5 3 4
32 27 22 20 17 20 10 1 3 4 2 2 4 3 2 1 3 0 1 2 3 3 2 2 2 1 2 1 6 5 3 1 1 5 6 2 2 2 4 3 1 2 5 7
31 27 21 19 17 21 6 4 4 2 2 3 6 3 3 2 3 1 4 2 4 4 2 2 1 3 0 1 3 3 3 2 3 4 4 4 2 4 1 5 0 4 5 2
30 27 23 20 19 22 4 3 2 4 3 3 4 4 4 4 4 1 4 2 1 1 2 2 4 2 3 1 1 1 2 2 4 3 4 2 3 3 4 5 1 6 3 4
31 26 23 20 18 22 4 5 4 4 2 3 4 5 3 5 3 3 2 1 2 1 3 4 1 4 5 4 3 2 2 1 1 2 3 2 2 5 3 8 8 6 10 3
29 24 22 20 20 21 6 7 3 3 3 4 5 7 4 4 4 3 3 2 2 2 2 2 4 2 1 2 3 5 4 2 2 1 1 3 2 5 4 3 2 4 6 7
29 25 20 18 19 20 12 10 5 4 5 1 2 4 3 3 3 2 2 1 5 2 1 1 1 2 2 1 1 1 3 5 3 3 2 2 2 5 4 2 1 6 5 4
31 25 18 17 18 19 16 8 7 6 4 3 4 3 4 3 3 3 3 3 5 1 1 3 3 1 1 1 0 2 1 2 2 3 1 2 3 7 3 2 1 9 5 6
32 25 23 20 16 16 10 9 7 5 3 3 4 3 3 2 3 3 2 2 3 3 2 2 1 1 1 1 3 1 2 1 1 1 3 1 4 3 3 1 3 4 6 3
32 27 26 18 17 13 15 7 16 16 5 4 9 13 9 7 4 3 2 4 2 0 1 2 1 2 1 1 1 5 1 2 2 3 3 1 3 3 2 1 2 3 4 4
33 29 25 19 18 16 8 20 24 15 4 4 4 4 8 7 8 5 3 2 1 2 2 2 1 1 2 1 1 3 5 2 0 3 6 4 5 4 3 4 3 5 5 7
30 28 24 22 16 12 22 17 13 7 4 4 1 5 6 6 7 7 7 4 3 4 2 2 1 1 2 2 2 0 4 3 3 2 4 3 4 3 3 3 6 6 7 7
29 27 25 22 16 16 21 18 11 7 5 4 3 6 3 5 6 9 6 6 3 2 2 2 2 0 0 1 2 1 4 1 1 1 2 1 3 1 2 3 4 4 4 6
33 29 26 19 17 20 11 3 3 7 6 4 3 2 3 7 9 10 7 4 3 2 1 1 3 3 0 1 1 2 3 5 4 2 4 3 5 2 3 2 3 3 4 5
34 28 24 21 20 9 6 2 4 10 6 3 3 2 1 8 5 3 2 2 1 1 1 0 2 2 3 2 2 2 5 6 3 6 6 3 5 3 4 3 2 3 5 5
34 29 24 18 14 11 7 9 10 9 6 3 4 1 2 4 2 2 1 2 1 1 1 1 2 1 2 2 2 2 3 6 1 8 7 5 5 3 1 1 2 1 1 2
35 31 24 12 3 2 6 11 7 8 5 3 3 5 4 3 1 2 1 1 1 1 1 2 1 2 3 3 3 1 2 3 6 8 8 4 4 4 3 2 2 2 2 1
40 26 4 2 2 22 14 4 3 4 3 2 2 3 2 3 2 3 3 1 1 2 3 1 1 3 2 3 3 2 2 4 4 6 5 7 5 5 6 6 4 2 2 4
10 3 2 10 13 3 2 2 2 1 1 1 2 3 4 1 3 3 1 2 1 1 2 2 2 3 3 5 2 2 1 3 4 4 4 6 6 6 5 5 5 6 6 3
16 22 18 7 2 2 3 1 1 2 5 2 4 2 3 1 2 2 2 3 2 3 2 2 3 3 3 4 3 2 2 1 5 6 6 8 9 9 7 7 7 5 5 5
15 6 4 3 0 2 7 7 3 2 4 4 3 3 3 2 2 2 2 4 4 1 1 3 3 3 4 4 2 1 2 3 4 7 9 10 10 9 8 8 5 3 5 5
3 5 6 6 3 4 3 3 5 3 5 8 4 2 3 2 3 3 4 4 3 3 3 5 2 6 4 3 1 1 4 5 6 6 9 12 10 9 10 10 8 7 7 7
3 4 6 4 3 3 2 3 4 2 7 5 3 3 3 2 3 2 2 4 3 5 4 3 3 4 4 2 2 4 5 5 4 11 8 12 11 10 12 11 9 7 6 6
3 4 4 2 5 2 2 4 6 1 5 3 3 3 3 1 4 4 5 6 6 4 3 3 3 2 2 3 3 5 9 10 12 13 12 12 11 9 11 10 10 8 5 4
3 2 3 2 4 5 3 3 2 4 3 3 3 4 4 3 3 2 3 4 3 3 2 2 4 4 3 4 5 9 12 13 14 13 12 12 9 6 7 7 9 8 6 5

GFSNW_925_spd_108.txt.gz
Wind_Speed
44 36 30 27 23 21 23 7 3 8 11 2 0 2 4 3 3 2 1 2 2 2 3 4 2 2 1 3 4 5 2 1 2 3 2 0 2 2 2 4 4 0 3 4
43 36 33 29 26 31 13 4 3 4 1 3 2 2 3 1 4 2 2 2 3 3 1 3 2 2 2 5 4 4 4 2 3 5 4 5 4 3 3 4 2 1 0 4
40 34 32 29 26 29 8 3 3 2 1 1 4 4 4 3 3 3 2 1 1 2 2 5 2 2 2 4 4 10 3 3 3 4 4 3 2 2 2 2 2 4 2 6
36 35 32 27 26 27 4 2 3 4 3 3 4 4 4 5 3 1 2 1 2 1 2 1 3 2 3 2 7 5 3 1 3 4 5 2 3 3 2 4 3 2 6 7
39 34 30 25 26 26 2 4 4 3 2 4 6 3 4 4 2 4 5 4 1 1 2 2 2 1 2 2 3 2 3 2 4 3 2 4 2 5 6 4 2 4 4 4
36 33 28 27 27 25 4 3 2 4 1 3 5 5 6 5 6 3 4 4 2 3 3 1 1 1 1 1 2 1 2 2 4 2 2 4 3 4 1 5 3 3 3 3
31 29 26 25 27 18 4 5 5 4 2 2 4 6 3 6 4 5 3 3 1 2 1 0 2 1 5 2 2 1 2 3 1 2 2 3 1 5 5 10 2 6 7 8
29 26 25 22 25 16 3 5 3 3 3 3 4 7 5 6 4 1 3 1 1 1 1 2 3 2 2 1 2 2 2 3 2 2 2 1 0 5 3 1 3 3 4 12
28 25 23 20 18 22 7 6 4 4 6 1 1 4 4 4 3 2 1 2 2 2 1 1 1 2 3 1 2 1 2 2 1 3 2 3 2 5 4 2 1 3 2 6
25 22 18 16 16 20 8 4 4 6 4 2 2 3 5 4 3 3 1 2 3 2 1 2 1 0 1 2 1 2 1 1 1 2 2 1 3 7 4 3 2 6 4 7
25 19 17 17 12 15 10 4 5 5 3 3 4 3 4 2 2 4 2 3 2 1 2 2 2 2 1 1 1 2 2 2 1 1 3 1 5 2 2 2 4 3 5 5
28 23 20 19 11 14 9 5 17 17 5 3 11 14 10 4 3 4 2 3 1 2 2 1 2 1 1 3 2 4 1 3 3 3 3 3 2 1 0 1 1 4 4 5
30 26 21 17 14 16 6 16 22 14 4 4 5 3 8 7 6 3 4 1 1 2 3 2 1 2 3 2 1 1 3 1 2 3 3 2 1 2 4 5 1 3 4 4
30 25 22 21 18 17 13 17 9 8 4 4 1 1 4 5 6 9 7 7 6 4 2 2 1 1 1 2 3 2 3 2 2 1 1 1 2 2 2 1 4 2 5 4
32 24 22 19 15 14 18 12 6 5 4 4 3 3 4 6 7 10 11 11 4 2 2 2 2 1 1 1 2 1 2 1 2 2 2 2 4 4 1 1 1 3 1 2
33 28 22 18 15 20 14 2 3 7 7 4 3 1 2 6 10 12 10 6 3 3 2 1 3 3 1 2 3 3 1 1 2 2 2 4 6 1 3 1 2 1 1 2
35 27 22 21 19 18 5 3 3 8 6 3 4 2 0 7 4 2 2 3 2 2 1 0 1 2 1 2 2 7 3 1 2 3 4 1 2 2 4 3 1 2 3 2
35 30 24 20 14 9 4 5 8 4 8 4 4 2 2 5 2 2 1 1 1 0 1 1 1 1 1 3 4 3 1 3 2 5 4 4 7 6 4 2 1 2 3 2
39 32 26 15 3 2 5 11 7 8 4 3 3 5 4 3 1 3 1 1 2 0 1 2 2 2 3 5 5 5 2 1 3 5 6 5 4 5 6 5 4 3 3 3
41 21 5 2 2 18 13 2 3 4 3 3 3 2 2 4 2 2 3 1 2 2 3 0 2 3 1 2 3 4 4 2 3 4 4 6 7 7 7 6 5 4 4 5
11 3 2 10 13 4 2 1 3 0 1 1 3 3 5 2 3 3 2 3 2 1 4 3 3 3 3 6 4 4 3 2 2 3 4 4 6 6 7 7 7 10 10 7
15 20 17 7 2 2 4 2 1 2 5 2 4 3 3 2 2 3 1 3 1 3 3 2 3 3 3 5 5 4 4 3 4 3 5 8 9 10 10 10 10 10 11 9
17 6 4 4 1 2 8 8 3 3 4 4 3 3 3 2 2 2 3 3 4 1 1 3 4 2 4 5 3 3 4 4 4 6 7 9 12 13 12 12 12 8 9 10
3 5 6 7 5 5 5 4 5 3 5 9 5 3 3 2 3 3 4 4 2 3 4 5 3 6 6 5 3 2 3 4 5 7 10 11 10 13 14 12 14 11 11 10
3 4 6 5 3 2 2 3 4 3 8 5 4 3 3 2 3 2 3 4 3 5 4 3 3 6 6 4 3 4 3 3 4 10 11 13 15 14 12 14 12 12 12 10
2 3 4 3 4 2 2 4 7 2 5 3 3 4 4 1 4 3 5 7 6 4 3 3 3 4 3 3 3 3 4 7 9 11 11 13 13 11 10 11 10 11 10 9
3 2 2 2 3 4 3 5 2 4 2 3 3 4 5 3 3 1 4 5 3 3 2 2 4 5 4 4 4 5 6 9 10 12 12 12 15 12 8 7 10 9 11 10

GFSNW_925_spd_111.txt.gz
Wind_Speed
45 8 42 38 34 34 27 7 3 8 14 2 0 3 3 3 7 2 2 3 0 2 2 5 2 2 4 1 3 3 3 1 2 2 6 2 0 2 1 3 4 4 3 3
34 28 39 36 35 40 16 3 3 3 1 3 1 2 3 2 6 4 3 2 2 4 1 2 3 3 3 4 3 4 5 3 3 6 4 4 5 3 2 4 3 3 3 4
18 37 43 36 37 34 10 4 3 1 1 1 3 5 3 3 3 4 3 2 2 3 3 5 3 2 2 3 4 8 2 1 2 4 4 3 3 4 3 3 3 2 2 4
33 44 38 37 33 26 6 2 2 4 5 4 3 4 5 4 3 1 2 2 1 2 2 1 3 2 4 3 7 4 3 1 2 3 5 3 3 3 3 4 4 4 1 2
31 33 31 29 31 23 5 3 4 2 2 4 6 3 5 6 3 3 3 3 3 2 3 2 2 2 3 2 4 4 4 2 4 5 4 1 3 6 5 5 3 5 6 3
29 31 26 24 27 16 2 1 2 4 3 2 5 4 5 6 7 3 1 7 4 3 3 3 2 2 1 1 2 2 3 2 4 2 2 3 4 6 2 3 3 3 4 3
26 26 25 20 21 17 2 2 3 3 1 2 3 6 2 6 3 5 1 4 4 3 1 2 3 3 3 2 5 2 2 3 1 1 2 3 0 6 4 6 2 2 4 5
29 28 21 16 17 17 4 1 2 3 3 2 4 6 5 5 4 3 3 1 3 4 4 3 2 1 2 1 3 3 2 2 1 2 2 1 3 5 3 3 3 2 4 6
28 25 22 15 14 22 6 3 5 4 6 2 3 4 3 4 3 2 1 2 1 3 2 2 2 2 2 2 2 1 2 2 0 1 3 2 1 3 3 2 1 1 4 6
23 23 20 16 13 16 6 3 3 5 4 2 2 3 5 4 3 3 1 1 2 2 2 1 2 2 2 2 3 2 1 1 2 1 2 1 3 6 3 3 3 4 2 5
21 18 16 13 12 16 7 2 2 3 3 2 3 3 3 2 2 4 3 3 2 2 2 2 2 2 2 2 1 2 3 3 2 2 2 1 4 2 1 2 4 3 4 4
24 18 12 15 13 8 6 4 15 15 4 3 8 12 9 3 2 4 1 2 2 3 3 0 2 1 2 2 1 2 0 3 2 4 3 2 2 2 2 2 1 3 3 3
26 25 14 15 12 9 4 12 16 11 3 4 5 3 8 7 6 1 3 2 3 2 2 3 2 2 3 3 2 0 2 1 2 2 2 1 2 2 3 3 3 5 4 2
32 29 21 18 13 9 6 12 7 7 4 3 1 4 4 7 5 4 2 6 4 5 2 2 2 2 1 2 2 2 4 1 1 1 1 1 2 2 3 3 4 5 4 4
33 30 23 17 11 7 9 8 4 3 3 3 2 1 5 6 6 10 10 11 4 3 3 2 1 1 2 1 2 2 2 4 3 2 2 1 3 3 3 3 3 4 4 3
32 31 25 18 14 11 14 1 3 6 8 4 3 1 3 5 11 13 10 6 3 2 2 1 2 3 1 2 2 2 1 1 3 2 1 3 6 4 3 3 2 3 4 3
33 29 25 18 21 20 2 3 4 8 5 3 3 2 0 2 2 2 2 4 2 2 1 1 1 2 3 0 3 4 6 4 2 3 3 0 3 2 5 3 3 3 3 3
36 30 25 20 14 9 1 4 6 4 7 4 4 2 2 4 2 2 1 1 2 2 2 1 1 1 1 3 4 4 4 3 4 2 3 3 6 7 3 4 4 4 4 3
36 31 24 14 3 3 2 8 5 4 1 4 3 5 4 3 2 3 0 2 2 1 0 1 3 2 4 5 6 6 5 4 3 3 3 3 2 3 4 5 6 5 5 4
40 26 4 2 3 11 10 2 2 4 3 3 3 3 3 3 2 2 3 2 2 1 3 1 2 3 3 3 3 6 6 6 4 1 2 2 3 4 5 4 4 5 5 8
10 4 2 9 15 4 2 1 2 1 1 2 3 3 5 2 3 2 2 3 1 2 3 3 2 3 4 6 6 5 5 5 4 3 1 2 4 5 6 6 7 9 10 9
16 16 13 7 3 2 2 3 1 2 6 2 5 4 3 2 2 3 2 3 2 3 3 2 3 3 3 6 6 5 5 5 3 2 3 5 6 8 9 9 10 10 10 10
19 4 4 4 2 3 8 8 4 2 5 5 4 3 3 2 2 2 3 4 4 1 2 3 4 2 4 5 5 4 4 3 2 4 5 7 9 11 10 12 15 11 11 12
3 6 7 7 6 6 5 5 5 3 6 10 5 3 3 2 3 3 4 3 1 3 4 5 3 6 6 5 3 4 2 1 3 5 7 9 11 12 15 16 16 11 12 14
4 4 7 7 3 2 2 3 4 2 10 8 4 3 3 2 4 1 3 4 3 5 5 3 3 5 6 5 3 3 1 2 3 5 7 13 14 14 16 17 13 12 15 15
2 1 3 3 4 2 2 3 5 4 7 4 4 4 4 2 4 3 6 8 6 4 3 2 3 4 4 3 3 2 1 3 5 8 9 11 12 13 15 16 16 15 13 13
3 1 0 2 2 4 3 5 3 7 4 3 3 5 5 3 3 2 4 5 3 3 2 2 3 6 4 4 3 3 3 4 7 8 10 12 13 15 15 10 13 15 14 14

GFSNW_925_spd_114.txt.gz
Wind_Speed
46 47 16 41 43 36 24 6 3 7 10 2 1 2 4 2 6 2 3 3 2 2 2 4 2 2 5 3 3 5 1 1 2 4 4 3 2 4 2 3 3 4 3 3
49 6 54 43 39 35 21 3 2 1 1 2 1 2 1 2 6 4 2 2 0 2 2 3 2 2 3 4 4 4 4 3 3 7 5 5 4 5 3 3 2 4 3 2
15 49 43 44 40 31 9 3 3 1 0 2 2 4 3 2 4 3 3 2 4 3 3 4 2 2 1 4 3 7 2 2 2 3 2 3 5 7 7 4 4 1 3 4
37 35 37 41 40 21 0 2 2 1 5 3 3 2 3 4 3 2 3 2 3 3 2 1 3 2 4 4 7 5 3 3 3 2 4 3 4 6 10 11 6 4 2 5
29 37 34 31 32 13 2 3 4 3 1 2 5 0 4 4 3 2 1 3 4 4 4 2 3 1 3 1 3 3 3 1 2 6 5 5 4 9 7 7 6 4 5 6
29 26 26 26 23 4 4 2 3 4 2 2 4 4 5 6 7 2 2 6 3 7 3 2 3 4 4 3 2 2 1 2 3 3 4 3 5 8 4 2 2 3 4 3
22 26 22 18 16 5 4 3 3 3 2 2 2 4 2 6 3 5 2 3 3 3 2 3 4 5 5 6 4 1 4 3 2 1 3 4 3 4 3 4 1 3 4 6
24 22 22 18 15 8 6 5 2 3 3 2 3 3 5 6 5 3 3 3 1 3 2 2 2 1 3 2 3 4 3 1 2 2 3 2 1 3 2 1 1 3 4 7
26 23 18 14 10 9 7 8 5 3 5 2 2 3 2 4 3 3 2 3 1 3 2 1 1 1 1 1 1 2 2 1 1 1 3 2 0 2 0 2 2 5 3 5
20 21 17 14 12 7 3 5 6 4 4 2 2 2 4 4 3 3 1 2 1 2 2 1 1 1 2 0 3 2 1 1 3 1 2 3 3 6 3 3 3 3 4 5
18 19 18 15 6 6 8 3 3 3 3 2 3 4 3 3 2 4 3 3 1 2 2 2 2 2 2 1 2 2 4 4 2 0 1 2 4 3 1 1 2 2 4 4
21 22 22 12 6 6 6 2 13 12 5 2 6 11 9 4 2 4 2 3 2 3 3 1 2 1 1 2 2 1 1 4 3 4 3 2 3 2 1 1 1 3 3 5
20 22 19 14 12 11 6 8 10 7 3 3 4 3 6 10 6 2 3 1 2 0 2 3 2 2 3 3 4 2 1 3 2 2 1 2 1 2 2 3 3 3 3 4
28 26 22 18 14 10 6 6 6 5 4 3 1 3 3 7 6 4 2 5 4 4 2 2 2 2 2 3 2 3 4 3 3 1 1 1 1 3 4 4 3 3 4 4
29 28 25 18 13 9 5 7 5 2 2 3 2 1 5 7 8 12 9 8 3 2 2 2 2 1 2 0 1 3 4 6 4 4 3 3 1 2 4 4 4 5 5 4
25 28 27 18 12 11 6 1 5 6 6 4 2 2 2 5 10 13 10 6 3 2 2 1 2 2 2 2 3 3 2 2 3 4 3 3 3 3 1 3 4 4 4 4
29 27 24 18 13 17 2 2 3 11 5 3 3 2 1 1 2 2 3 4 2 2 1 0 0 2 1 2 3 3 6 6 4 3 2 2 2 2 4 3 3 4 3 3
35 31 23 16 13 7 2 2 8 8 6 3 3 2 2 2 1 1 1 2 2 2 1 0 1 2 1 3 5 3 5 5 5 3 2 1 3 4 3 4 3 3 3 4
36 30 22 12 3 4 4 8 5 3 1 3 2 5 4 2 2 2 1 2 1 0 1 2 3 2 5 6 6 7 7 6 6 4 1 2 2 4 5 5 6 4 4 5
38 22 4 3 4 9 10 2 2 3 2 2 3 3 4 3 2 1 2 1 2 0 3 2 2 4 4 5 5 7 8 7 6 4 3 3 0 2 3 2 2 4 5 7
9 3 2 7 14 3 2 1 2 1 1 3 3 3 5 2 3 3 2 3 1 1 3 3 3 3 4 6 6 5 7 6 5 3 2 2 1 3 4 5 5 8 9 8
14 16 12 8 3 2 4 4 1 4 6 3 5 4 3 3 2 3 1 3 2 3 3 2 3 3 2 6 6 5 5 6 4 2 1 2 4 5 6 7 9 10 14 12
18 4 4 4 2 4 9 9 4 2 5 6 5 4 4 2 2 3 3 4 4 1 2 4 4 2 4 6 5 5 5 5 4 1 1 3 6 8 9 11 14 15 17 14
3 5 7 6 6 7 5 4 6 4 6 11 5 4 3 2 3 3 4 3 2 4 3 6 3 6 7 6 5 6 5 4 2 0 2 5 6 10 12 12 13 16 15 17
4 5 6 8 2 1 1 2 5 2 11 9 5 4 3 2 3 2 4 4 5 6 5 3 3 6 8 7 5 6 5 4 2 2 3 6 8 10 13 14 14 14 14 14
4 4 2 1 3 2 2 0 5 4 9 3 3 4 4 2 4 3 7 8 7 4 3 3 4 7 6 5 5 6 7 6 2 1 3 6 8 10 11 14 14 12 10 13
6 3 2 3 0 3 4 4 4 9 9 4 4 5 5 4 3 3 4 5 3 3 2 3 4 8 7 5 7 8 7 5 1 2 5 8 11 11 11 9 12 14 15 17

GFSNW_925_spd_120.txt.gz
Wind_Speed
47 45 53 55 53 30 18 5 3 3 3 2 2 1 1 4 3 2 2 2 2 1 3 2 1 1 4 2 5 5 3 3 5 2 2 3 3 10 6 4 5 4 2 5
42 48 48 41 26 16 12 3 3 3 5 2 0 1 1 1 3 1 2 2 1 2 3 1 1 3 2 5 5 6 7 3 6 1 3 6 6 15 4 3 3 15 4 4
36 32 28 25 21 16 10 4 3 1 2 1 2 2 3 5 4 2 4 2 1 2 4 4 1 3 1 4 4 7 3 4 7 6 3 6 9 20 18 7 6 9 11 16
26 18 20 18 14 6 6 2 3 1 3 3 1 2 1 5 2 4 6 1 1 2 2 1 2 3 4 0 5 4 3 5 5 4 4 5 15 14 18 19 13 8 10 14
10 8 13 6 6 8 8 3 4 2 3 1 4 2 4 5 2 2 1 3 4 3 4 3 3 2 4 3 3 2 3 2 3 5 7 7 17 18 14 14 11 10 12 11
7 8 5 7 11 8 5 3 2 3 3 6 4 2 3 5 4 2 2 2 6 7 4 4 4 4 3 2 3 4 2 2 2 1 6 5 5 11 9 5 10 7 10 7
4 11 7 3 12 17 7 3 2 1 4 5 2 3 1 5 1 1 2 1 2 2 0 3 3 4 2 2 4 3 3 2 2 2 4 4 1 2 3 5 7 9 8 11
6 7 10 7 8 8 12 3 1 2 4 4 4 5 4 5 4 3 2 4 2 1 1 1 1 1 2 2 2 3 3 2 2 2 4 3 3 3 2 3 6 9 10 11
2 4 4 5 5 3 7 9 4 1 6 4 4 4 4 4 3 2 2 1 2 1 1 2 1 1 2 0 2 1 1 1 2 1 2 1 3 3 1 1 3 7 9 9
6 6 8 6 5 8 5 5 3 2 3 3 4 3 5 4 3 2 2 3 3 1 2 2 2 1 1 2 1 0 1 2 2 2 1 1 1 2 1 3 4 2 5 6
6 11 12 9 8 9 9 5 3 1 2 2 4 3 4 4 3 3 4 4 2 2 3 2 1 2 1 2 1 2 2 2 2 1 1 2 2 1 2 4 3 3 3 4
9 10 11 11 8 9 8 4 3 7 6 2 2 2 2 1 2 3 3 2 2 2 3 2 1 2 2 2 1 2 3 2 1 3 1 1 0 3 3 2 3 2 2 3
9 6 11 11 10 5 8 7 6 3 3 1 2 2 2 1 1 4 3 2 1 2 1 1 1 4 2 3 4 2 4 4 3 2 5 5 4 3 3 3 3 2 2 2
11 16 18 18 13 7 7 8 7 1 2 2 2 1 2 2 2 5 5 1 3 3 2 1 2 2 2 2 2 3 0 7 4 3 3 3 6 5 4 3 2 2 2 2
12 17 11 19 15 10 6 12 11 9 2 1 1 1 1 1 2 4 5 6 3 2 2 2 2 1 2 1 2 5 7 6 6 3 8 4 6 9 5 4 2 0 1 2
10 7 13 15 15 11 5 3 7 10 4 2 2 2 2 3 6 7 5 3 1 1 2 2 2 0 2 3 3 4 11 7 4 1 8 4 9 6 4 3 2 1 1 1
9 6 14 15 15 16 6 4 7 7 4 1 2 2 2 3 3 2 1 1 1 1 1 3 2 3 3 3 5 3 10 9 6 7 9 4 6 4 4 1 0 1 1 1
8 7 16 16 14 8 6 11 6 9 3 1 2 2 3 7 3 3 1 2 1 2 1 1 3 3 3 5 12 5 9 9 8 9 1 3 9 7 5 4 2 2 1 2
9 9 15 15 6 4 2 5 7 11 2 3 3 5 4 4 2 2 2 1 3 1 3 3 4 4 7 9 9 14 14 12 13 9 6 6 6 6 5 3 2 2 3 3
11 15 4 2 6 10 11 2 2 1 4 3 3 3 3 4 3 3 3 1 2 3 3 4 4 5 13 8 8 12 15 11 16 12 7 7 7 7 6 5 2 3 4 6
10 5 2 4 17 5 2 3 4 4 4 5 4 5 5 4 4 3 3 3 3 3 3 4 3 5 5 9 11 10 14 12 13 5 5 7 7 8 7 5 3 3 5 6
14 12 10 7 3 3 5 5 3 6 6 5 6 4 3 4 2 3 3 3 3 4 6 3 4 5 4 9 11 12 13 13 11 12 11 11 9 8 5 3 3 3 5 7
15 4 4 5 5 6 8 9 5 4 6 7 6 5 4 3 3 3 3 5 5 5 4 5 6 2 6 9 10 12 13 14 14 11 11 10 8 5 3 2 1 3 4 6
4 6 8 7 7 8 8 6 6 5 5 10 8 3 3 3 4 3 5 3 4 5 5 7 3 10 12 12 12 13 13 12 12 10 10 8 6 4 2 1 1 3 4 6
5 5 7 9 5 0 2 3 4 4 9 12 7 3 1 2 3 3 4 5 6 7 6 3 3 11 13 13 12 12 11 9 7 9 8 8 6 3 1 1 2 3 3 3
4 8 5 2 5 4 4 5 4 5 9 4 3 5 4 5 4 5 10 7 7 4 4 2 7 12 13 14 12 11 12 14 12 11 10 8 6 5 3 2 2 1 2 5
6 4 2 5 2 7 5 5 5 8 9 4 4 6 6 4 3 5 5 5 3 2 2 5 8 14 14 12 10 12 14 13 12 11 9 8 7 6 5 4 2 2 4 5

GFSNW_925_spd_123.txt.gz
Wind_Speed
24 14 17 22 31 18 9 5 3 3 10 3 2 4 2 1 3 2 2 2 3 3 3 1 1 3 3 3 9 6 3 4 5 9 5 7 3 11 9 5 7 3 2 4
34 36 28 19 21 6 3 2 2 4 8 3 3 4 4 2 1 4 2 2 2 2 2 3 2 1 1 4 6 8 7 5 6 5 3 12 6 19 15 4 3 18 5 4
23 22 20 11 2 6 3 2 2 1 2 2 2 4 4 4 3 4 2 1 2 1 2 2 2 3 1 4 4 8 5 5 8 6 5 7 10 18 20 12 4 8 11 13
10 6 10 14 16 12 3 1 2 1 2 3 4 1 2 4 2 1 3 2 2 4 2 3 4 3 2 3 5 4 3 3 5 4 6 10 16 16 18 15 11 7 6 11
3 1 3 15 25 10 1 1 3 2 3 3 6 2 4 3 2 2 1 0 2 3 2 4 5 6 5 4 5 2 2 1 2 1 3 3 16 18 15 14 13 16 15 12
2 5 5 13 25 16 5 3 1 2 3 5 5 3 4 5 2 1 1 2 1 3 3 5 4 4 3 2 5 5 4 4 4 0 5 3 2 12 8 7 14 6 9 9
2 1 6 9 15 22 8 5 4 3 3 6 2 4 4 5 1 2 1 1 2 3 3 4 4 3 3 4 2 2 6 6 4 4 7 2 1 4 4 9 11 12 11 13
1 3 4 6 13 14 12 7 5 4 2 4 4 6 5 5 2 1 1 2 3 1 3 3 5 3 4 3 2 3 3 4 3 4 4 3 3 2 3 4 6 10 11 12
3 3 2 1 4 9 9 10 11 4 2 5 2 7 8 5 4 4 1 1 1 2 2 2 2 2 3 2 2 2 3 2 3 3 2 1 5 4 3 3 2 8 9 11
2 5 4 3 2 4 5 4 14 5 4 2 2 3 6 3 2 1 3 4 3 2 2 3 2 1 2 2 3 2 2 1 1 2 2 1 3 1 1 3 3 4 7 8
4 4 9 7 4 3 3 2 10 3 3 1 2 2 1 2 4 4 4 4 4 4 3 3 1 3 1 3 2 2 2 2 1 1 2 2 3 2 2 5 6 3 4 6
7 5 7 7 6 5 1 4 5 6 2 3 2 4 4 4 6 1 5 2 0 2 4 2 2 3 2 3 1 2 3 2 2 3 3 2 3 3 4 4 4 3 3 2
7 7 4 9 7 6 4 3 6 4 0 3 3 3 3 3 3 3 3 3 1 2 3 3 2 5 1 3 4 2 5 4 3 2 7 6 6 5 4 3 4 4 1 1
9 7 10 12 14 10 7 3 5 8 1 3 2 1 4 4 4 5 4 2 2 1 2 3 3 3 2 2 3 3 2 9 7 6 4 4 8 8 7 6 3 4 2 0
10 10 12 11 19 14 8 4 4 8 4 1 4 3 4 3 4 5 6 4 3 2 2 4 3 1 2 2 3 8 9 9 6 3 8 7 4 13 9 8 7 4 3 4
9 9 2 10 17 14 6 3 2 9 6 3 2 2 2 0 1 2 3 3 2 2 2 3 2 1 3 3 4 7 11 10 11 3 6 5 7 11 9 8 6 4 2 1
9 4 9 14 15 16 3 1 5 9 8 2 2 2 2 2 1 1 1 1 1 2 2 3 2 2 3 3 5 4 10 11 9 7 12 7 11 7 9 7 5 4 3 2
7 6 6 16 15 12 5 6 3 12 2 2 2 1 2 8 3 3 1 2 2 3 3 1 3 2 3 6 13 7 9 11 11 12 4 3 10 9 8 6 5 4 3 0
6 4 11 14 3 3 2 4 3 8 2 2 3 4 2 4 2 0 3 2 3 1 3 3 3 5 8 11 11 13 14 13 12 12 8 8 11 10 8 6 4 3 2 2
8 9 3 1 3 9 12 2 2 4 3 3 4 3 4 5 5 3 3 2 3 3 4 3 5 8 14 13 10 9 14 14 15 16 12 11 10 9 8 6 3 2 0 2
9 4 2 5 13 2 1 3 4 5 5 6 5 8 6 4 4 4 4 2 2 3 3 4 4 5 6 14 17 10 14 14 15 11 11 10 9 10 8 6 4 2 0 2
12 10 8 7 3 3 4 5 5 7 7 7 7 5 3 4 3 3 4 3 2 6 6 3 4 5 4 6 14 14 16 16 15 12 12 11 11 11 9 7 5 2 0 2
12 4 4 4 4 9 8 11 5 4 5 6 5 4 4 3 3 3 4 6 6 3 4 5 6 1 4 8 10 14 14 15 14 13 15 16 14 11 9 7 4 2 0 1
4 6 8 8 7 7 7 7 4 4 4 9 9 4 3 3 4 2 5 4 3 5 5 6 4 9 10 10 10 13 15 14 14 13 14 13 12 10 7 6 4 2 2 1
5 5 8 10 6 2 1 2 3 3 8 10 6 3 2 3 5 4 2 4 7 7 6 4 1 8 12 12 13 13 13 11 10 12 9 11 12 10 9 6 4 2 2 2
5 7 5 1 6 5 2 4 3 5 8 4 2 4 4 5 5 6 10 4 7 4 4 1 4 9 10 12 12 12 11 12 12 13 13 13 11 9 8 6 5 4 3 3
6 5 5 5 2 5 5 6 5 9 8 4 3 7 8 4 4 5 6 6 4 1 1 1 4 11 11 11 11 11 15 14 14 14 14 12 11 10 9 7 6 4 3 4

GFSNW_925_spd_126.txt.gz
Wind_Speed
18 16 16 18 12 19 10 3 1 6 13 1 2 3 3 1 4 1 2 2 2 3 4 1 1 2 4 4 6 6 5 3 5 4 6 4 2 6 6 3 7 4 1 4
26 21 12 6 10 18 11 2 2 6 6 1 3 5 7 5 3 5 2 3 2 3 3 1 1 5 3 2 4 5 5 4 5 4 2 2 6 12 15 2 2 16 3 5
14 16 14 10 15 15 5 1 4 2 2 3 1 7 5 5 3 3 2 2 4 3 0 3 2 2 2 1 4 6 3 4 5 3 4 4 9 16 17 13 4 6 11 11
4 4 5 11 20 13 1 1 2 2 1 0 4 3 2 4 2 1 3 2 2 4 3 4 3 4 2 5 2 4 1 3 4 1 2 7 12 13 15 13 12 7 11 9
4 3 4 12 23 7 4 3 2 3 3 1 3 0 2 2 3 2 2 2 3 4 4 4 5 5 4 3 4 1 1 3 2 3 3 2 10 13 11 11 11 7 10 6
4 8 7 10 15 9 6 4 4 2 1 2 3 2 4 3 1 1 2 6 4 3 3 6 6 5 3 3 1 3 1 3 4 3 5 3 3 7 7 4 11 6 8 7
8 8 8 10 9 12 6 3 2 3 1 3 2 1 1 2 2 3 2 5 5 3 5 7 7 8 7 6 4 5 3 4 2 4 6 3 2 6 1 6 9 10 10 10
7 7 9 9 10 7 10 7 2 2 3 2 3 3 2 4 2 0 1 3 3 5 4 3 4 3 4 7 6 4 2 3 2 1 2 3 3 3 1 3 4 9 8 10
7 8 6 6 9 8 5 9 6 1 2 3 8 2 2 3 4 2 3 2 2 3 2 2 3 2 3 2 2 6 5 6 2 1 1 1 3 4 1 4 1 5 8 9
7 8 8 7 9 8 8 6 4 2 1 2 4 1 2 4 4 1 2 3 3 1 2 2 2 2 1 2 3 1 2 2 2 2 1 2 5 4 1 1 0 4 5 7
10 9 10 9 8 8 7 6 7 7 1 2 2 0 0 3 3 2 2 2 1 3 2 2 2 1 0 2 3 2 2 0 2 1 1 3 5 3 2 4 4 4 3 5
8 8 9 9 7 8 7 4 7 4 3 2 4 5 6 5 2 3 2 2 2 1 2 2 2 3 2 2 3 1 2 4 2 3 3 4 3 5 4 5 6 2 4 3
7 7 7 6 9 8 6 5 6 3 2 2 3 3 6 4 5 4 2 0 5 3 2 1 2 3 2 2 4 2 4 3 2 3 4 7 7 5 5 5 6 6 4 4
7 8 8 10 11 11 8 4 5 4 4 2 2 2 3 7 6 5 5 4 5 4 2 2 2 2 1 3 3 2 2 4 5 4 6 5 7 8 8 5 6 6 5 4
7 8 9 14 16 17 12 9 8 6 2 3 1 3 3 4 5 5 5 4 3 2 2 2 3 1 1 3 2 5 6 7 5 5 9 6 7 10 10 9 7 7 6 4
6 6 7 6 2 13 5 2 3 8 4 2 3 3 3 3 4 5 6 6 2 1 2 3 3 2 0 3 4 7 9 7 7 3 5 4 7 10 8 8 8 6 6 6
5 3 2 6 8 13 3 2 0 2 4 2 3 2 3 5 4 2 1 3 2 2 2 3 2 2 3 3 5 6 7 9 6 7 8 5 7 6 8 7 9 9 9 8
5 4 2 6 12 8 4 8 5 5 1 2 3 2 2 9 3 3 2 3 3 3 3 0 2 1 3 6 12 7 6 8 8 8 3 5 8 8 8 10 10 7 6 6
5 4 4 9 3 4 3 3 4 8 3 2 2 2 2 3 1 1 1 2 3 2 3 4 4 4 7 10 7 9 8 9 8 8 6 7 9 9 8 7 7 6 6 6
9 7 3 1 1 4 6 1 1 2 3 3 3 2 1 3 2 2 2 2 2 2 4 2 4 6 13 11 11 8 11 10 11 10 9 8 8 10 8 7 7 6 6 7
8 5 2 5 10 2 1 2 3 3 3 4 4 5 4 3 3 2 3 2 2 2 3 3 3 4 5 15 21 10 11 12 14 5 7 8 11 11 8 7 8 10 9 7
13 11 8 6 3 2 4 4 3 5 5 4 4 3 3 2 1 2 1 2 2 6 2 1 4 5 5 3 6 9 12 12 12 9 10 9 11 14 11 10 10 11 10 8
13 3 3 3 3 7 7 8 4 4 4 4 3 2 3 2 1 2 2 4 5 2 3 5 5 6 2 3 1 7 9 10 11 9 15 17 16 20 19 14 14 12 11 8
2 5 6 7 6 7 6 6 4 3 3 7 5 2 3 3 3 3 4 4 1 4 4 6 4 6 6 6 5 7 9 10 11 12 14 14 15 15 17 16 14 13 11 7
4 5 7 9 5 3 3 2 3 0 7 8 3 2 2 3 3 4 2 3 6 6 5 5 3 3 7 7 6 8 9 10 10 10 10 13 18 16 15 14 13 12 10 8
3 7 5 2 6 2 1 2 2 2 6 2 2 3 3 5 4 4 9 6 7 5 4 3 1 2 3 4 5 7 8 9 10 14 15 18 17 16 17 14 12 11 10 8
6 5 7 2 2 4 3 3 3 8 7 3 3 6 10 1 3 5 6 6 4 2 2 2 2 4 5 6 7 8 10 10 13 16 17 16 18 19 17 10 11 10 8 5

GFSNW_925_spd_129.txt.gz
Wind_Speed
16 20 15 7 16 22 15 4 3 10 18 4 2 2 1 3 4 2 1 2 3 2 4 1 1 2 6 3 2 6 4 3 4 6 4 5 2 5 5 2 6 3 3 4
13 13 8 10 19 19 6 2 2 6 5 3 3 3 4 5 2 3 3 2 2 1 2 2 3 4 5 4 1 0 3 3 5 8 3 3 4 9 13 6 2 11 3 5
8 8 10 13 25 20 1 2 3 4 3 1 1 3 1 2 5 3 2 0 2 2 3 4 3 1 4 4 2 5 0 3 3 2 3 3 6 10 13 9 3 7 10 9
4 7 7 13 22 12 3 3 1 3 3 5 5 4 2 2 3 4 2 2 3 3 2 5 2 4 3 2 3 2 3 3 3 5 6 3 4 9 13 12 11 7 10 10
5 9 10 12 17 7 4 2 2 4 3 5 6 5 5 2 1 5 4 2 4 5 3 2 2 4 2 1 3 1 1 3 4 4 6 3 3 9 9 9 11 5 10 7
9 11 11 12 13 7 3 1 1 4 3 4 3 3 3 4 3 2 3 4 4 3 1 3 4 4 5 5 2 2 1 1 4 4 6 3 4 2 4 3 10 7 6 5
8 9 9 10 11 8 3 2 2 3 2 2 1 3 4 5 3 4 2 4 4 2 6 6 5 6 7 7 7 5 2 2 2 4 5 4 4 4 2 2 7 8 9 10
5 6 7 8 10 8 7 4 1 2 1 2 4 4 2 4 4 3 4 2 2 5 5 3 4 1 2 6 7 7 6 0 3 1 1 5 2 4 2 2 2 6 5 8
4 4 4 6 8 7 4 5 5 1 3 3 4 3 0 2 2 5 2 2 5 3 1 2 2 2 2 1 2 5 3 2 3 2 1 3 3 3 4 2 1 3 5 6
5 4 4 5 4 6 6 2 9 1 1 3 3 3 4 2 1 1 3 2 3 3 2 2 2 3 1 1 2 3 2 2 4 4 3 6 3 5 3 2 4 4 4 4
5 5 5 5 4 4 5 2 6 1 1 4 3 2 3 1 3 3 3 3 3 2 1 1 3 1 3 2 4 3 4 4 3 2 3 6 6 3 4 3 4 6 5 5
7 5 5 4 4 2 3 1 4 3 3 4 3 6 7 4 4 5 1 5 2 3 0 2 2 3 3 2 3 2 2 5 2 6 5 3 5 3 3 5 5 5 5 4
7 6 5 3 5 5 4 3 4 2 2 4 2 4 5 9 10 7 4 1 2 2 3 2 3 3 3 2 5 3 3 3 2 3 2 5 5 3 4 5 5 6 5 6
7 7 7 8 9 8 7 4 3 1 1 1 4 2 3 5 9 8 6 2 1 1 2 2 3 2 2 3 4 4 5 5 4 5 5 2 6 6 7 6 7 6 5 5
7 7 8 9 12 14 13 10 7 6 2 2 4 2 2 3 7 6 6 5 1 1 0 2 3 3 1 3 2 5 6 7 6 6 8 5 5 9 8 7 6 7 5 4
7 7 7 8 5 13 10 2 3 9 7 3 2 1 1 1 3 4 5 5 2 1 2 3 3 2 2 2 4 7 6 6 7 5 4 6 4 9 8 8 7 6 7 6
7 6 3 4 5 15 2 2 3 4 8 2 3 3 2 3 2 1 1 1 1 2 2 3 3 2 3 3 7 6 8 9 7 5 7 2 5 6 8 8 9 12 11 11
8 6 4 6 12 9 3 4 1 7 2 2 1 3 2 6 2 2 4 2 1 2 3 2 3 0 2 5 11 9 8 5 7 9 3 7 6 8 7 12 11 9 7 6
9 5 7 6 3 4 2 3 5 8 2 2 2 3 4 2 2 1 1 3 3 2 3 3 4 3 6 13 9 8 9 8 9 8 7 8 9 10 9 9 9 8 7 6
14 10 4 1 2 4 7 1 1 1 1 1 3 2 3 4 2 1 1 2 3 2 5 3 4 5 11 18 21 16 8 10 10 7 8 8 8 12 11 10 7 8 8 10
9 6 2 4 9 3 1 2 2 2 3 4 4 6 4 3 3 3 3 3 2 2 4 5 3 4 7 8 13 14 11 11 14 9 9 8 13 13 10 8 8 14 16 12
16 13 9 5 2 1 3 3 3 5 5 3 3 4 4 2 2 3 2 3 1 6 1 1 3 6 8 8 9 7 10 13 13 9 12 10 13 16 12 11 12 16 19 19
17 4 3 4 3 5 6 7 4 3 3 3 3 1 3 2 1 1 2 4 6 1 1 4 5 8 3 4 4 7 6 12 13 9 15 18 17 21 21 15 20 23 21 18
2 6 7 7 6 8 7 6 4 5 4 4 3 1 2 2 4 3 3 5 2 3 4 6 5 5 6 4 3 4 7 9 11 12 11 12 16 15 22 24 27 25 20 18
4 5 7 8 5 2 4 4 2 2 7 6 3 2 3 1 1 4 0 2 5 6 5 4 4 6 4 4 2 3 4 6 8 9 11 11 18 18 18 24 24 23 22 20
3 6 4 3 6 3 1 3 4 2 5 3 3 4 3 5 4 6 9 5 7 5 4 3 4 6 3 2 2 4 5 5 6 10 14 17 17 18 20 22 22 21 21 20
6 5 8 5 3 5 5 3 4 7 6 3 3 7 13 2 2 5 5 6 4 4 3 3 3 5 6 4 5 7 8 7 10 11 14 15 19 23 19 11 19 19 18 16

GFSNW_925_spd_132.txt.gz
Wind_Speed
8 7 10 16 21 22 10 3 3 10 13 4 1 2 2 2 1 2 2 1 2 3 3 2 2 3 6 6 2 3 3 3 5 6 1 4 2 5 4 3 5 3 3 4
4 6 10 17 26 19 2 2 1 6 4 3 3 3 4 3 4 3 4 3 2 2 2 2 4 4 4 5 3 2 1 2 5 7 4 2 5 7 8 7 3 6 5 6
4 9 12 15 21 17 6 3 2 4 4 1 3 2 2 3 3 2 3 2 4 4 2 2 3 2 1 4 2 3 2 2 3 1 5 3 5 9 10 8 3 8 9 11
6 11 12 12 16 12 3 3 2 3 1 4 2 2 1 2 4 3 3 3 4 3 3 5 2 3 4 2 2 2 2 3 3 6 8 4 2 6 10 7 11 6 12 11
8 12 11 11 15 10 2 2 2 2 2 2 3 4 1 1 0 2 3 2 6 4 1 1 3 3 2 3 3 1 1 3 5 4 3 7 3 5 7 6 9 6 12 4
8 11 11 9 12 11 5 2 2 3 3 1 4 3 2 2 2 1 2 1 2 3 3 3 6 5 5 6 3 2 1 1 3 5 4 5 5 3 1 2 5 5 5 7
6 6 6 9 11 11 4 3 1 3 2 1 2 2 3 3 4 4 2 1 0 1 5 6 4 5 7 7 8 5 2 2 1 4 5 3 5 3 3 2 3 3 4 8
4 5 5 5 7 6 4 4 1 2 1 2 3 2 2 1 3 4 4 3 3 2 4 4 5 4 4 4 6 5 7 0 3 1 2 5 2 4 3 3 3 3 4 8
4 4 5 4 4 6 2 1 3 3 3 4 2 2 3 3 2 5 3 2 2 2 2 2 1 2 2 4 7 2 3 3 2 3 1 3 2 3 2 2 3 1 1 5
6 6 5 5 5 3 3 1 3 2 1 3 4 3 3 3 2 2 4 2 1 2 1 1 1 3 2 1 3 2 2 2 4 4 4 6 4 5 3 2 3 3 2 2
6 7 6 6 5 4 3 2 2 0 2 4 5 4 4 1 2 3 3 3 3 2 2 2 2 2 3 1 4 3 5 4 3 1 3 5 6 3 5 4 1 5 3 2
7 7 7 6 5 5 3 1 2 3 3 4 5 7 7 6 3 4 1 3 2 3 3 1 0 2 1 2 3 2 3 5 2 7 5 3 6 3 4 5 5 4 5 4
9 7 7 7 4 7 5 4 4 3 2 4 2 3 3 9 10 6 3 2 1 1 1 3 2 4 3 2 5 3 4 4 4 2 4 6 6 3 5 6 6 5 5 5
10 9 8 8 8 8 7 4 3 2 1 2 5 2 4 4 8 8 4 1 1 3 2 1 2 2 3 3 4 5 5 3 4 6 7 4 8 8 8 7 6 6 5 5
12 11 9 9 9 8 10 10 9 6 2 3 4 4 3 4 7 7 6 5 1 1 1 1 3 3 1 2 2 4 6 8 5 7 6 4 4 9 8 9 8 8 7 5
12 10 9 8 8 8 7 2 7 12 6 1 3 2 2 3 5 5 5 6 2 1 3 3 3 4 2 2 4 7 8 5 9 7 5 7 3 7 7 10 9 8 8 7
14 10 6 4 2 12 3 3 1 5 9 2 4 4 2 3 3 1 0 3 2 3 2 3 3 2 4 3 4 7 10 11 9 8 5 4 5 6 9 8 11 16 12 13
14 10 7 7 10 9 4 4 1 7 2 2 1 4 3 6 2 1 3 1 1 2 3 1 2 1 1 6 15 16 11 10 8 10 12 6 5 6 8 9 10 8 8 7
15 10 9 6 4 4 2 4 6 9 3 2 3 3 3 2 1 1 2 1 2 1 3 3 4 3 6 12 12 12 10 9 8 8 9 7 8 11 11 10 11 10 8 7
20 14 5 2 4 6 6 2 1 0 2 2 4 2 2 4 3 2 2 1 2 2 4 2 3 4 18 24 18 14 7 9 6 5 6 7 7 11 13 15 14 12 11 10
12 6 2 4 10 4 1 2 3 3 3 4 3 5 3 2 3 3 3 3 2 2 4 3 2 4 7 7 8 9 12 12 14 14 14 13 9 13 12 8 9 13 17 10
16 13 8 5 2 2 3 4 3 5 5 3 3 4 4 2 2 3 1 2 1 6 2 2 3 6 3 6 7 9 7 9 13 14 11 12 10 14 13 11 10 16 21 22
18 4 4 3 3 6 7 9 5 4 4 4 3 1 3 1 1 2 2 4 6 1 1 4 6 6 10 8 7 10 8 8 9 8 10 14 13 17 18 12 18 23 23 25
3 6 7 7 6 7 7 6 4 4 4 6 3 2 3 2 4 3 4 5 2 3 4 7 3 5 7 7 4 5 8 8 7 7 6 8 11 11 17 22 27 26 20 23
5 6 8 9 5 3 2 3 2 2 6 5 3 3 2 1 2 4 2 3 6 6 5 4 4 5 6 7 4 6 6 5 4 2 4 5 12 13 14 22 27 25 25 24
5 7 5 2 6 2 3 4 5 4 5 3 3 4 4 5 4 5 10 6 8 5 4 4 2 4 7 5 6 5 5 4 2 4 7 11 13 14 17 24 25 25 26 24
6 5 7 8 1 4 5 4 4 9 5 3 3 7 11 1 3 5 5 6 4 4 3 3 4 4 6 7 4 3 2 2 5 6 10 9 15 21 19 10 19 24 24 24

GFSNW_925_spd_135.txt.gz
Wind_Speed
7 11 16 20 28 23 9 3 3 8 8 4 1 1 1 3 2 3 2 1 1 2 1 1 1 3 7 3 1 3 2 2 5 6 3 4 2 4 3 2 5 3 3 5
6 10 15 19 23 21 5 2 2 4 3 3 1 1 2 1 2 2 2 2 1 2 2 2 3 4 4 4 1 2 1 2 5 7 4 1 2 5 5 5 3 3 5 6
7 11 15 14 16 16 4 3 3 4 4 1 3 2 3 0 1 2 1 2 2 2 2 3 4 3 3 2 3 3 3 2 4 3 7 2 5 7 4 4 3 7 5 12
7 12 13 12 13 10 2 3 1 3 2 4 2 1 1 3 1 1 2 2 2 2 2 3 2 3 5 2 1 2 2 3 4 9 14 6 6 5 6 3 6 3 12 12
9 10 12 12 12 7 4 3 3 2 0 2 2 3 2 2 2 3 2 2 2 2 3 5 4 1 3 4 4 1 0 3 4 5 5 0 5 7 6 1 3 3 10 6
9 10 9 10 11 5 3 2 1 3 1 1 2 3 3 4 2 3 3 4 2 4 5 5 7 6 4 4 2 2 1 2 4 5 7 6 3 4 3 3 3 3 4 5
9 8 7 9 11 10 3 2 3 3 2 2 4 2 2 3 3 3 3 2 2 2 4 4 3 4 8 7 8 6 2 3 1 4 7 4 4 2 3 4 7 5 4 6
8 7 7 6 8 9 4 2 2 3 2 2 3 3 4 3 4 3 3 3 3 2 4 3 3 2 2 4 5 7 6 1 2 2 1 7 1 2 2 2 5 3 4 5
8 7 7 6 5 6 3 2 1 3 3 4 0 2 1 2 2 5 4 3 2 3 2 2 1 2 2 3 4 3 4 1 3 2 1 3 3 1 1 2 4 3 1 6
9 8 7 6 6 5 4 1 2 0 1 3 4 3 4 4 1 2 3 4 2 3 1 1 2 3 3 2 3 4 2 2 4 4 4 8 5 3 1 2 4 2 2 2
11 9 7 6 4 5 4 2 1 1 2 5 6 4 4 2 2 2 2 3 2 2 1 1 2 2 3 1 4 4 6 4 4 3 3 6 5 3 5 4 2 3 2 4
12 10 9 6 3 6 3 2 3 3 4 4 5 9 9 5 3 4 0 3 3 4 1 1 2 3 1 3 3 1 3 6 3 8 6 4 6 7 5 5 5 4 5 4
13 11 8 6 3 7 6 4 4 4 2 4 2 4 5 9 11 8 3 2 2 1 2 2 1 4 3 3 5 3 5 3 4 1 4 8 10 7 6 6 7 6 5 6
15 12 9 7 7 8 7 4 3 3 1 1 4 2 2 2 6 9 6 1 2 3 1 1 2 2 3 3 5 4 5 6 5 6 8 7 11 9 7 8 5 6 5 7
16 13 10 9 7 8 7 10 10 7 2 2 4 7 3 5 7 8 7 6 3 2 1 2 3 2 1 3 2 5 7 8 6 8 9 5 5 3 8 8 9 9 8 5
19 15 11 9 7 7 5 2 6 13 7 1 3 1 3 4 5 6 6 5 2 2 3 3 3 3 2 3 4 8 7 5 6 4 6 7 3 5 5 10 8 8 8 6
21 17 12 8 6 11 4 4 1 8 10 1 4 4 1 3 2 1 1 2 1 2 2 3 3 2 4 3 4 6 8 10 8 7 1 5 7 6 8 8 9 15 10 12
23 16 10 8 9 8 5 6 4 11 3 3 2 4 3 5 2 1 1 2 1 2 2 2 3 1 2 5 18 12 4 5 8 10 9 10 3 3 7 8 8 8 7 6
24 17 11 7 5 5 5 8 9 11 4 2 3 3 4 2 1 1 1 1 2 1 3 3 2 3 6 12 7 8 6 6 7 4 4 7 11 8 9 10 10 12 9 8
24 17 5 2 4 8 11 4 2 1 2 2 4 2 2 4 2 2 2 0 2 2 4 1 3 4 17 17 16 17 15 11 8 8 9 5 6 10 9 14 14 15 13 11
13 7 3 6 12 4 1 2 3 3 3 4 3 7 4 3 3 3 3 3 1 2 3 3 3 4 5 8 8 9 9 8 11 14 17 10 8 8 11 10 12 14 18 14
17 17 11 6 3 2 4 4 3 6 5 4 6 4 3 2 2 2 2 3 2 5 1 0 4 5 8 7 9 10 7 8 9 9 13 13 13 10 11 12 12 17 22 23
20 6 4 3 3 6 7 10 5 5 5 5 4 3 4 1 1 3 3 4 5 1 2 5 5 4 6 7 7 9 7 7 8 10 13 11 13 15 14 8 17 21 21 26
3 7 7 7 6 7 7 7 5 4 4 8 4 3 3 2 3 3 4 4 2 3 5 7 3 5 6 6 5 6 11 9 9 9 7 8 6 8 16 20 23 24 20 26
5 6 8 11 5 3 3 3 3 2 8 6 4 3 2 1 3 4 3 3 6 6 5 4 4 5 4 5 6 7 9 9 8 4 5 3 7 6 7 18 24 23 24 26
5 6 5 2 6 2 3 7 3 4 7 3 3 3 3 5 4 6 10 5 8 4 4 4 2 4 4 4 6 7 7 6 6 9 8 5 6 7 9 16 22 24 28 27
7 6 5 6 3 8 6 4 6 9 7 4 4 7 10 3 3 5 6 6 4 4 4 3 5 5 6 6 6 7 7 6 6 4 4 5 5 8 12 6 15 23 26 28

GFSNW_925_spd_138.txt.gz
Wind_Speed
11 15 21 24 24 22 5 3 3 7 5 4 1 1 1 1 1 1 2 1 2 3 4 2 2 4 6 5 2 1 4 2 5 7 2 2 4 3 3 3 4 3 3 5
12 16 21 22 21 20 5 2 2 3 2 3 2 1 2 2 2 0 1 2 1 1 3 2 5 5 5 7 5 4 4 2 4 6 3 1 3 4 2 6 3 2 4 6
10 16 19 20 19 15 5 3 3 4 4 1 3 3 2 2 2 3 2 2 1 1 2 3 3 3 3 6 4 5 4 2 5 4 6 0 7 10 6 3 2 6 4 15
12 15 17 18 18 12 4 3 0 2 2 4 3 3 3 2 3 0 2 2 1 2 2 2 3 2 5 1 3 3 3 4 4 8 15 9 12 15 8 2 4 2 8 12
10 13 14 16 17 10 4 2 2 2 1 1 2 3 2 2 3 2 2 2 2 2 4 5 4 3 3 4 1 2 1 3 3 5 4 4 8 10 6 8 4 6 7 10
9 9 10 13 16 9 4 2 2 3 1 1 2 2 2 3 2 2 3 2 2 5 7 5 7 6 4 4 1 1 3 0 4 5 5 9 4 5 5 3 3 3 3 4
6 7 7 10 13 12 4 2 2 3 2 1 3 1 2 3 3 3 3 1 1 3 5 6 3 4 7 6 7 6 3 1 2 4 7 3 4 2 3 5 7 8 7 6
6 5 6 6 7 10 5 2 2 2 2 3 4 4 4 4 3 3 3 4 4 2 4 4 6 3 3 3 5 7 7 2 2 1 2 7 3 3 4 2 5 2 5 5
6 4 3 3 4 5 4 2 2 3 3 4 1 2 2 2 2 5 4 2 2 2 2 2 2 3 3 3 2 5 5 2 2 0 1 4 3 1 1 2 4 5 3 3
6 5 4 3 3 2 2 1 1 2 2 3 4 4 4 4 2 2 4 4 1 2 1 1 2 3 2 3 3 4 2 2 5 4 5 8 6 3 3 2 4 2 2 1
9 6 5 4 2 3 2 2 3 1 2 4 7 5 4 2 2 3 2 3 2 2 1 1 2 3 3 2 4 5 6 5 4 3 3 7 7 4 7 5 2 4 4 3
12 9 6 5 5 6 4 2 4 4 4 5 6 10 12 7 7 5 2 4 3 4 2 1 1 3 2 3 4 1 3 6 3 8 6 5 7 7 5 6 5 5 5 5
14 12 9 6 6 7 8 5 4 3 2 4 2 5 7 15 16 11 3 2 2 2 2 3 1 4 3 3 5 2 4 4 4 2 4 9 13 8 6 7 8 6 6 7
17 14 10 7 7 8 8 7 6 4 1 2 5 3 4 4 9 11 8 2 4 4 2 1 2 3 4 3 4 4 6 5 4 7 12 11 14 10 9 8 7 6 7 8
19 17 12 9 7 9 10 11 11 9 2 2 4 6 4 4 6 7 6 5 3 2 1 2 3 3 1 2 1 4 6 7 6 7 8 4 7 6 4 7 8 9 9 7
22 20 16 11 8 8 3 2 9 16 9 1 3 0 2 3 6 7 5 4 2 2 3 3 3 3 2 3 4 7 7 5 5 5 2 5 8 7 3 5 8 9 10 8
24 22 18 12 11 14 5 3 3 14 12 2 3 4 1 3 2 2 2 3 1 2 2 3 2 3 4 2 4 4 5 7 7 8 2 7 6 8 7 6 8 12 12 14
23 23 18 11 12 13 10 9 6 14 3 1 1 4 2 5 2 1 1 2 1 2 2 1 3 2 2 5 13 5 7 8 9 10 9 11 7 7 9 8 3 7 7 6
24 24 17 13 7 8 5 12 10 14 3 2 3 3 4 3 1 1 1 1 2 1 2 3 3 3 7 10 6 6 6 5 13 12 7 7 8 11 10 8 8 9 9 7
30 21 6 3 6 9 16 6 2 3 3 3 4 2 2 4 2 2 2 1 2 2 4 1 4 5 17 16 10 8 12 8 7 5 8 3 7 7 8 12 10 13 13 11
13 7 3 8 17 4 2 3 4 4 4 4 4 9 5 4 3 3 3 3 2 2 3 3 3 4 5 6 6 6 7 7 7 7 9 10 13 12 10 9 11 12 13 13
18 19 14 8 3 2 4 5 4 6 6 5 5 3 2 2 3 3 4 4 3 6 2 2 4 5 7 6 5 7 7 6 7 6 9 8 9 11 9 10 9 15 20 19
20 5 5 4 4 6 8 10 6 5 5 5 4 4 4 2 1 2 3 5 6 2 3 5 6 4 4 6 6 7 5 4 6 7 9 11 10 12 11 8 16 17 17 22
4 6 8 7 7 8 7 5 6 4 5 11 6 4 3 3 4 3 5 4 3 3 5 7 4 6 8 5 3 2 6 5 6 8 7 7 7 9 11 12 17 17 15 22
5 5 8 12 6 2 3 4 4 2 9 8 5 4 2 2 4 4 3 4 6 6 6 4 4 7 6 4 2 5 6 5 4 3 4 7 11 8 10 8 11 17 17 22
5 5 5 1 6 1 3 5 4 4 10 4 2 4 3 5 3 6 10 6 7 5 4 4 3 4 5 5 6 6 6 6 6 8 7 10 9 8 7 6 9 16 20 20
7 6 3 4 2 9 6 6 6 11 11 4 4 9 9 4 3 5 6 7 4 4 4 4 5 7 8 6 4 5 8 7 11 9 9 10 10 8 5 5 9 13 17 20

GFSNW_925_spd_141.txt.gz
Wind_Speed
11 16 20 19 18 15 3 3 3 6 3 4 1 2 1 1 1 1 1 1 2 2 1 1 2 3 6 5 4 3 4 1 5 7 2 3 4 3 2 2 3 3 2 4
12 16 18 19 19 14 2 2 1 4 2 3 2 0 2 1 1 1 0 1 1 0 2 3 4 4 3 5 3 4 4 1 4 7 3 2 2 3 4 4 3 3 2 5
13 16 17 18 19 13 3 3 2 4 4 1 4 2 1 1 0 1 1 2 1 1 1 2 3 3 1 4 3 4 3 2 5 5 6 1 4 6 8 2 3 5 4 10
13 14 15 17 17 11 2 4 0 2 1 3 2 2 1 1 1 0 1 1 2 2 1 2 2 2 4 2 2 1 1 4 4 9 16 11 14 13 11 6 6 4 4 8
12 11 12 15 17 10 5 3 3 2 0 2 1 3 3 2 2 3 2 2 1 4 5 6 4 2 3 5 1 1 0 4 4 5 5 2 10 13 11 8 5 8 9 10
11 10 10 11 13 8 5 2 2 3 2 2 1 2 2 3 1 3 4 4 1 3 6 5 8 8 5 5 6 2 1 1 5 5 5 10 5 4 4 3 5 4 5 5
10 9 8 9 10 9 4 3 3 3 1 1 3 2 3 4 4 3 2 3 3 3 2 4 2 3 6 5 6 5 2 0 2 6 7 2 5 3 3 5 8 7 8 6
10 8 7 7 6 7 4 3 3 3 2 3 3 4 5 4 3 3 4 4 4 2 5 4 4 2 1 2 4 6 6 2 3 2 4 8 1 3 4 4 5 4 5 4
11 10 7 6 6 5 3 2 2 3 3 4 1 2 2 2 2 4 3 1 1 3 2 2 1 2 2 1 3 5 6 3 1 1 2 4 2 2 1 3 4 6 4 4
10 10 8 6 4 4 3 1 1 1 2 3 4 4 4 4 1 2 3 4 1 3 1 1 2 3 2 2 3 4 4 3 8 8 6 8 7 3 3 0 4 5 5 5
12 10 9 7 5 4 3 2 4 1 2 4 8 5 4 2 2 2 2 3 2 2 0 1 2 2 3 2 3 5 6 6 5 4 4 8 5 4 5 4 1 3 4 4
15 12 12 8 7 7 5 3 4 4 4 4 5 11 12 7 5 4 1 3 2 4 2 1 0 3 1 3 3 1 3 6 4 8 6 5 6 5 3 2 3 3 4 5
18 16 14 12 9 9 10 6 5 3 2 4 1 5 10 16 14 7 3 2 2 1 2 3 1 4 3 3 5 3 5 4 4 2 3 7 12 10 7 6 7 5 6 6
20 19 16 14 10 10 11 9 8 5 2 2 4 2 3 3 9 15 9 6 4 3 2 2 2 2 4 3 4 4 5 6 4 7 11 10 6 7 9 9 6 6 5 7
21 21 20 16 12 11 12 13 14 12 3 3 4 4 2 3 7 10 10 8 3 2 1 2 3 2 2 2 2 4 6 7 6 7 7 5 7 3 3 3 4 9 8 7
22 21 22 19 14 12 5 2 12 20 10 0 3 0 2 3 7 9 8 8 2 2 3 3 3 3 3 2 4 7 9 6 7 5 3 6 10 9 5 6 7 7 8 9
23 21 22 23 17 17 5 3 3 15 14 1 4 3 2 5 4 1 2 3 1 2 2 3 2 2 4 3 4 7 8 11 8 9 2 7 6 7 5 5 7 8 11 16
23 20 21 23 16 13 15 17 4 18 3 2 2 3 1 8 3 2 1 3 1 2 2 1 3 1 3 6 12 5 6 5 8 9 8 9 8 8 11 8 6 7 7 7
22 16 22 13 8 7 4 11 17 19 4 3 3 3 3 4 2 2 1 1 2 1 2 3 3 3 8 11 7 7 8 7 4 7 8 9 10 12 11 8 8 9 11 8
26 23 7 3 5 9 16 5 3 3 3 3 4 3 4 4 2 2 3 2 3 3 4 3 4 6 15 17 10 7 8 8 5 5 7 2 7 7 8 9 9 9 11 9
15 7 3 10 22 5 2 3 4 5 4 5 4 11 5 4 3 3 3 3 3 2 3 4 3 5 6 7 8 9 9 7 8 7 7 7 8 9 10 11 9 10 13 11
16 17 13 8 3 3 5 5 4 6 7 5 5 3 3 3 3 3 3 3 3 6 3 3 4 5 7 5 6 6 6 7 7 8 8 8 8 11 8 9 9 12 16 18
18 6 5 4 4 6 8 11 5 5 4 5 4 4 4 2 1 3 3 5 6 2 3 5 6 3 4 7 5 4 5 6 5 6 7 8 8 10 10 8 16 17 17 19
4 6 8 7 6 8 6 5 5 4 5 10 7 3 3 3 4 3 5 4 3 4 4 7 4 7 9 7 4 4 4 8 7 6 5 6 7 8 12 14 14 13 13 15
5 5 8 11 5 2 3 2 4 1 8 10 4 3 2 2 4 5 3 5 6 7 6 4 4 6 6 7 6 7 7 4 5 4 4 5 10 9 12 15 11 12 15 13
5 6 5 2 5 3 4 4 4 3 10 3 2 4 4 5 4 5 10 6 8 4 4 5 1 3 5 5 6 7 6 5 5 8 8 11 10 10 12 14 12 13 14 17
7 5 6 7 2 8 6 6 7 12 10 4 3 8 9 3 4 5 6 6 4 4 4 4 6 7 9 7 5 5 7 7 11 11 12 14 14 13 11 6 10 11 14 16

GFSNW_925_spd_144.txt.gz
Wind_Speed
12 15 16 17 17 10 3 2 1 7 4 2 2 2 3 2 3 2 1 1 1 2 1 2 1 2 4 3 2 2 0 3 5 2 4 2 2 2 2 3 1 4 3 3
14 15 15 17 17 11 2 2 1 5 3 2 2 2 1 1 3 2 2 1 2 1 2 2 3 3 1 4 3 1 2 2 6 4 3 2 4 4 5 5 4 6 3 2
15 14 15 18 17 10 2 1 2 3 4 2 2 2 2 2 1 2 2 1 2 2 3 3 2 3 2 4 3 3 3 3 7 5 8 4 9 8 6 6 4 5 7 8
14 13 14 16 18 9 1 3 2 1 2 3 3 0 0 1 2 1 2 3 4 2 2 3 4 3 2 2 2 2 2 4 6 14 19 17 18 19 13 12 12 6 1 8
14 13 13 14 17 9 4 1 3 2 3 1 1 1 2 2 1 2 2 4 3 5 5 5 5 2 3 3 3 2 1 4 7 10 3 3 12 15 15 16 15 15 19 18
14 13 12 12 14 9 3 2 1 2 2 2 2 2 3 3 1 3 4 3 3 7 10 8 10 8 8 5 4 4 3 3 6 5 7 15 7 9 10 6 8 9 9 6
13 13 12 12 11 10 3 2 2 2 2 3 3 4 4 5 5 3 2 3 3 2 5 7 4 7 8 9 10 7 4 3 3 7 12 3 3 1 1 8 13 12 14 14
12 12 11 9 8 7 5 1 0 1 2 3 4 7 5 4 4 4 5 5 2 4 4 4 4 2 3 3 2 9 10 5 4 4 5 12 3 1 3 4 6 3 8 8
11 12 10 8 6 5 4 1 1 1 3 3 1 3 4 2 3 2 3 1 1 1 2 2 3 2 2 2 4 5 6 8 3 2 4 4 2 2 2 2 4 1 4 5
11 12 11 9 6 5 4 2 1 1 3 1 4 4 2 4 2 2 1 2 2 1 2 2 2 2 1 2 3 4 4 4 9 8 6 10 8 3 3 3 2 2 4 6
15 12 13 10 6 5 3 4 4 1 2 5 6 5 4 3 3 3 4 2 2 3 4 3 2 3 1 3 3 5 8 8 5 6 6 8 8 5 5 2 1 3 6 8
18 15 14 12 9 7 5 2 3 4 5 4 6 11 14 8 5 3 3 2 2 3 2 2 1 4 3 3 3 3 4 7 3 9 6 3 9 10 7 4 8 8 8 9
19 18 17 15 12 9 10 7 5 1 3 5 2 4 8 16 15 11 3 2 2 4 1 1 1 6 3 4 6 3 7 6 5 3 7 17 19 16 17 15 15 15 15 11
21 20 19 18 15 11 13 14 10 6 1 3 2 2 3 4 9 17 9 3 5 5 2 3 3 4 6 4 4 5 5 9 8 12 20 18 17 11 9 8 7 8 11 14
22 22 21 20 18 13 12 14 15 12 3 3 5 4 4 3 5 8 10 8 4 2 3 4 4 2 3 3 3 10 9 10 8 8 10 7 5 4 3 8 11 10 10 11
23 23 22 21 20 15 6 3 11 21 13 1 4 0 1 2 4 5 5 6 2 2 3 3 3 2 3 4 5 10 15 14 17 4 2 6 11 14 14 15 15 14 11 11
22 22 24 22 25 23 6 3 2 17 16 2 4 3 2 5 4 2 2 2 1 2 2 4 3 4 5 4 6 7 15 19 17 12 3 10 11 8 4 8 13 15 16 16
20 21 24 23 26 19 11 13 7 21 5 1 3 3 2 8 3 3 3 3 2 4 3 2 4 3 4 7 19 14 7 8 11 13 12 12 12 13 15 13 10 12 13 12
16 21 20 21 8 7 5 12 18 22 6 3 4 3 2 4 2 3 2 2 4 2 4 4 5 5 9 15 15 13 15 11 7 8 7 9 12 14 12 10 9 10 12 11
18 24 6 3 7 11 19 6 3 2 4 4 5 3 5 5 4 4 4 3 3 3 5 3 5 7 19 17 16 13 12 15 10 6 6 5 5 7 9 10 10 10 12 12
12 5 2 6 26 6 3 4 5 5 4 5 5 11 5 5 4 4 5 3 3 3 3 5 4 5 6 10 15 17 16 12 13 12 10 8 8 8 9 9 9 10 13 11
17 19 14 9 2 2 4 5 4 6 6 5 4 4 2 4 2 3 4 4 4 6 5 3 5 6 10 5 5 7 9 12 12 12 11 8 9 10 9 9 9 12 14 13
17 6 5 4 4 6 9 11 5 5 5 6 4 4 4 2 2 2 4 6 6 3 4 5 6 5 3 6 6 5 6 7 7 8 10 9 9 9 11 11 12 13 14 13
3 6 7 7 7 8 7 6 8 5 5 10 9 4 3 3 5 3 5 5 4 5 5 7 5 9 8 8 7 4 8 10 10 9 8 7 8 11 12 13 11 10 12 13
5 5 7 10 7 1 1 2 4 3 10 12 5 3 3 3 4 4 3 5 7 7 6 4 3 4 4 6 8 8 6 7 8 6 7 8 10 9 10 12 11 10 12 12
4 5 4 3 3 5 4 6 4 5 10 5 2 5 4 6 4 7 11 6 10 5 5 5 3 4 6 7 10 11 10 9 7 7 9 9 9 8 9 13 14 15 13 15
5 5 5 6 2 7 7 7 7 13 11 5 4 9 11 4 5 6 6 8 3 4 4 5 5 8 8 8 8 8 9 8 9 9 11 13 11 8 8 8 13 10 15 17

GFSNW_925_spd_147.txt.gz
Wind_Speed
15 17 18 20 18 11 3 3 1 5 2 1 1 3 2 1 6 4 2 3 2 2 2 2 1 2 3 1 1 3 2 3 5 2 3 2 2 3 2 2 1 4 4 5
14 15 17 20 19 13 4 2 2 3 2 1 3 4 4 1 4 3 2 2 3 1 3 3 3 2 1 3 2 3 2 2 5 5 3 2 4 4 7 6 5 10 4 4
14 14 15 18 20 11 2 2 2 2 2 2 2 3 3 3 2 3 2 3 2 4 4 4 3 3 1 3 3 0 2 4 7 7 9 9 13 12 9 9 4 5 10 14
13 13 14 16 19 11 2 3 2 2 1 2 2 1 1 3 3 3 3 3 7 4 3 4 4 3 4 4 2 3 3 6 10 15 19 19 19 18 16 16 17 7 3 7
12 13 14 14 16 10 2 2 2 1 1 0 2 2 4 4 2 3 4 5 2 5 5 5 6 4 5 5 4 2 2 5 13 14 9 7 13 15 16 17 19 22 24 24
12 12 12 13 13 8 3 2 1 2 4 1 3 1 2 4 2 4 6 5 5 8 9 8 8 9 9 9 7 5 4 5 9 5 7 16 14 10 16 13 11 16 15 14
11 12 11 9 10 9 3 1 2 2 1 3 3 2 4 5 7 5 2 5 6 3 3 9 11 9 12 12 12 10 7 6 5 7 13 4 3 1 1 8 13 14 16 16
11 11 11 9 7 6 3 1 2 2 4 3 6 7 5 4 6 6 8 8 5 5 6 4 4 4 4 4 3 9 10 8 5 4 6 13 6 2 5 5 6 4 7 8
14 12 10 9 6 4 2 1 0 2 4 2 2 3 4 5 5 3 4 2 2 2 3 3 3 2 2 3 5 2 6 9 5 3 5 4 3 5 3 1 6 7 3 4
15 15 12 9 8 4 0 2 2 3 3 3 5 4 3 2 2 3 1 4 4 3 3 3 3 2 1 3 4 6 4 4 11 10 7 10 9 8 5 3 3 4 3 4
17 17 16 12 9 7 2 2 4 3 3 5 6 4 5 3 3 3 3 2 3 4 4 3 3 3 2 3 6 5 10 7 6 7 7 9 10 8 6 3 1 4 8 10
18 18 18 17 12 9 6 3 4 5 6 5 5 10 11 9 6 3 4 4 1 3 4 3 2 4 3 4 4 6 6 9 3 10 6 4 12 12 9 7 9 13 14 16
17 20 19 20 17 13 11 4 5 2 4 6 4 5 7 15 16 8 4 3 3 2 3 3 3 7 3 4 6 5 9 13 6 3 8 18 19 18 16 15 15 11 9 11
18 19 22 22 21 16 15 14 10 5 3 4 1 1 2 5 8 13 10 2 3 1 2 3 4 4 5 4 7 9 6 9 10 15 20 20 20 18 16 12 7 7 9 9
20 19 23 23 22 19 16 17 18 14 4 3 5 5 3 4 5 9 11 11 7 4 4 5 5 4 3 6 6 13 11 12 12 8 11 12 8 5 2 7 8 11 13 13
21 19 22 25 22 18 7 3 14 25 14 2 4 2 4 3 5 6 8 10 6 5 4 5 5 3 3 5 6 8 15 20 18 9 3 7 6 5 8 11 11 9 10 10
19 18 21 26 24 25 7 4 2 15 18 2 3 4 3 6 6 4 4 5 3 4 4 5 7 5 5 4 10 6 12 17 17 17 13 11 13 7 2 7 10 14 15 17
17 17 17 25 26 20 10 11 7 23 4 2 3 2 1 8 3 3 5 4 4 5 4 2 4 3 4 7 15 20 22 14 13 16 16 15 9 9 10 10 9 10 10 9
15 12 13 11 8 6 5 10 13 23 7 3 4 3 1 4 2 2 3 3 4 3 4 4 6 6 8 17 12 16 14 12 8 12 12 12 13 12 10 10 10 11 10 7
12 14 5 2 8 11 16 7 3 3 3 4 4 3 5 7 5 4 4 3 3 4 6 3 6 8 21 27 18 13 9 12 11 8 11 12 8 11 11 10 8 8 10 9
5 5 3 7 23 5 3 4 5 4 4 5 5 10 6 3 4 4 5 3 3 4 3 5 4 5 10 16 20 18 22 17 15 15 10 9 6 6 7 8 9 8 9 9
11 13 11 8 3 2 5 5 4 6 6 7 6 4 6 4 3 3 5 4 4 7 5 3 5 6 12 11 10 7 9 14 19 15 15 10 8 8 8 9 8 10 10 10
13 4 4 4 4 7 8 11 6 6 6 7 5 4 5 3 3 2 4 7 7 2 4 5 6 9 5 4 4 4 4 8 11 14 14 14 11 11 12 7 11 10 10 9
3 5 6 7 7 9 7 5 5 4 4 10 9 5 4 3 5 3 5 4 2 4 5 9 5 11 8 8 7 6 7 8 8 10 9 9 8 6 11 14 11 9 10 12
4 4 7 10 8 2 2 1 3 1 8 11 5 3 3 3 4 5 4 5 7 8 7 4 4 6 4 5 6 9 8 8 9 6 7 7 9 7 9 14 14 14 14 14
3 5 4 5 2 4 3 3 2 4 7 4 1 4 4 6 5 8 11 6 9 6 4 6 2 3 6 8 7 9 9 10 10 9 12 12 11 9 12 13 15 19 18 18
5 6 6 8 6 6 4 6 6 13 9 5 3 7 13 4 5 6 7 7 10 3 4 5 6 6 10 6 5 6 8 8 8 12 13 15 16 14 10 7 15 18 20 22

GFSNW_925_spd_150.txt.gz
Wind_Speed
17 17 19 20 19 7 5 4 1 4 2 3 2 2 2 2 4 2 1 3 3 3 2 1 2 2 4 2 1 3 3 3 4 5 4 3 4 5 4 3 0 2 1 6
17 17 18 20 20 12 2 3 2 2 2 1 2 1 2 2 2 2 1 1 1 1 3 2 4 4 5 5 3 3 2 3 4 1 1 2 4 4 4 3 2 6 2 6
17 17 18 18 19 11 2 1 3 2 1 1 3 2 3 3 1 3 2 3 0 4 6 5 2 2 3 3 3 2 1 4 6 5 3 3 5 5 7 7 3 3 9 10
16 17 17 18 19 12 3 2 2 1 3 2 2 1 2 2 3 3 2 3 5 3 3 4 5 2 2 6 3 2 3 5 7 11 14 14 16 16 12 13 12 7 3 5
14 15 16 17 17 9 3 3 2 3 1 2 4 3 5 4 2 2 4 4 4 5 5 5 4 6 2 6 4 2 2 4 7 13 14 10 10 12 13 17 18 20 21 25
13 14 15 15 15 8 3 3 1 2 3 3 3 0 1 3 2 4 6 4 5 6 6 5 5 5 6 6 4 6 5 2 5 5 9 12 10 10 19 11 8 15 16 19
9 12 13 13 12 11 4 2 3 2 1 2 3 2 2 4 6 4 2 1 5 3 5 7 8 7 7 9 8 5 4 3 3 5 8 3 6 4 3 7 9 14 16 12
11 9 10 11 10 8 4 3 3 2 4 1 4 5 4 4 4 3 5 6 1 5 4 3 4 3 2 4 2 4 6 3 4 3 2 11 9 1 5 5 6 9 14 6
12 11 10 10 8 6 4 7 2 3 3 1 4 2 5 4 4 4 4 2 4 1 2 2 2 3 1 3 4 3 5 7 3 4 3 5 1 4 4 3 5 3 5 2
13 12 12 10 10 4 2 6 6 3 3 3 4 4 2 4 1 2 3 4 3 2 2 2 3 3 2 3 4 6 4 3 9 8 6 9 8 8 3 1 5 5 2 3
14 14 14 13 11 8 3 5 7 4 3 4 6 5 5 2 3 3 3 2 1 3 2 2 3 3 3 2 4 6 7 7 5 5 5 9 7 5 6 4 0 3 2 5
17 16 16 16 14 12 7 3 7 7 6 4 6 12 16 9 3 2 5 2 3 4 3 2 3 3 3 4 4 5 4 7 5 10 8 5 10 7 10 4 6 5 5 6
18 17 17 18 17 16 13 6 7 3 4 5 3 4 10 16 18 10 3 3 3 2 2 1 2 4 1 3 5 5 6 6 5 1 8 19 20 14 12 10 8 6 5 3
18 18 16 18 19 19 18 15 11 6 5 3 3 3 3 6 11 17 13 1 2 2 0 2 3 3 5 3 4 4 4 3 6 10 16 18 20 17 13 11 7 5 5 7
18 19 18 18 20 19 19 18 19 16 5 3 4 8 5 5 6 9 11 7 2 2 1 3 3 3 2 3 3 12 9 12 9 10 10 11 6 6 4 2 6 7 7 7
18 18 18 18 18 18 9 3 17 28 20 1 4 1 4 2 5 6 8 9 4 3 3 3 4 3 2 3 4 7 11 18 19 16 5 9 3 4 4 5 7 7 6 7
17 18 17 17 19 27 8 5 3 12 20 2 3 3 2 3 2 2 2 3 2 2 2 4 3 2 4 3 8 5 10 14 19 20 14 11 5 6 7 8 7 7 8 12
16 16 16 15 20 22 14 16 8 23 5 3 3 3 2 10 3 2 3 3 2 3 3 2 2 2 4 7 25 12 10 18 18 13 12 18 4 5 7 5 4 6 7 6
15 13 10 4 7 6 6 9 14 25 8 3 4 3 3 5 3 2 2 2 3 3 4 3 5 5 8 19 17 12 11 10 8 5 12 10 11 14 9 8 8 8 7 6
13 7 5 1 5 9 18 6 3 3 3 3 3 2 3 5 3 3 3 2 3 3 5 2 4 8 15 24 26 19 16 13 11 10 13 8 12 14 11 10 7 8 6 4
5 3 2 7 20 4 3 4 5 4 4 4 4 10 8 3 3 4 4 3 3 3 3 4 4 4 10 19 19 17 17 18 19 16 17 10 8 10 10 8 8 6 7 6
7 12 8 7 2 2 5 5 4 5 5 5 4 4 3 3 3 3 4 3 3 6 3 2 4 7 15 9 10 9 8 7 11 14 20 12 9 8 7 7 7 9 11 9
8 4 4 3 3 6 7 9 5 4 4 4 5 3 4 2 2 2 4 6 6 3 3 5 7 6 6 8 6 7 6 6 7 10 9 11 8 11 10 6 11 13 13 12
2 3 7 6 6 6 4 3 2 3 2 7 7 2 3 3 3 3 5 4 2 3 4 7 6 6 13 6 4 4 5 7 7 8 8 8 8 8 15 19 17 14 10 13
3 3 6 9 4 1 2 1 3 1 6 8 3 1 2 3 4 4 4 5 6 7 6 5 3 6 6 6 2 4 6 3 6 5 7 7 7 7 11 21 21 20 16 14
3 5 5 5 2 4 2 1 2 2 6 2 1 3 3 5 4 6 8 5 8 5 4 3 4 6 5 4 5 5 4 5 7 7 11 10 10 9 13 14 19 20 20 20
6 6 6 8 7 9 3 4 4 10 7 4 3 5 8 1 3 4 5 6 4 3 4 3 4 6 8 6 7 6 5 6 6 9 11 19 19 15 10 8 19 23 24 24